Observation data for McCamey on 11/14/2019      Previous  Date  Next       Current Mesonet Observations  Soil Data  Daily Summary Page  Observations in Plain Language
KMC4 140600Z 11006KT 04/02 A3005 RMK A01 T00370022  RH  090%=      5-min Rain = 0
KMC4 140601Z 11006KT 04/02 A3005 RMK A01 T00360021  RH  090%=      5-min Rain = 0
KMC4 140602Z 12006KT 04/02 A3005 RMK A01 T00360021  RH  090%=      5-min Rain = 0
KMC4 140603Z 12006KT 04/02 A3005 RMK A01 T00360022  RH  090%=      5-min Rain = 0
KMC4 140604Z 12006KT 04/02 A3005 RMK A01 T00360022  RH  090%=      5-min Rain = 0
KMC4 140605Z 12006KT 04/02 A3005 RMK A01 T00360022  RH  090%=      5-min Rain = 0
KMC4 140606Z 12007KT 04/02 A3005 RMK A01 T00360022  RH  090%=      5-min Rain = 0
KMC4 140607Z 12007KT 04/02 A3005 RMK A01 T00370022  RH  090%=      5-min Rain = 0
KMC4 140608Z 12006KT 04/02 A3005 RMK A01 T00360022  RH  090%=      5-min Rain = 0
KMC4 140609Z 12006KT 04/02 A3005 RMK A01 T00360022  RH  090%=      5-min Rain = 0
KMC4 140610Z 12005KT 04/02 A3005 RMK A01 T00360022  RH  090%=      5-min Rain = 0
KMC4 140611Z 11005KT 04/02 A3005 RMK A01 T00360022  RH  091%=      5-min Rain = 0
KMC4 140612Z 11006KT 04/02 A3005 RMK A01 T00360022  RH  091%=      5-min Rain = 0
KMC4 140613Z 12005KT 04/02 A3005 RMK A01 T00360022  RH  091%=      5-min Rain = 0
KMC4 140614Z 12004KT 04/02 A3005 RMK A01 T00360022  RH  091%=      5-min Rain = 0
KMC4 140615Z 12005KT 04/02 A3005 RMK A01 T00360022  RH  091%=      5-min Rain = 0
KMC4 140616Z 12005KT 04/02 A3005 RMK A01 T00360022  RH  091%=      5-min Rain = 0
KMC4 140617Z 12005KT 04/02 A3005 RMK A01 T00360022  RH  091%=      5-min Rain = 0
KMC4 140618Z 12005KT 04/02 A3005 RMK A01 T00360022  RH  091%=      5-min Rain = 0
KMC4 140619Z 12005KT 04/02 A3005 RMK A01 T00350022  RH  091%=      5-min Rain = 0
KMC4 140620Z 12004KT 04/02 A3005 RMK A01 T00350022  RH  091%=      5-min Rain = 0
KMC4 140621Z 11003KT 04/02 A3005 RMK A01 T00350022  RH  091%=      5-min Rain = 0
KMC4 140622Z 11003KT 04/02 A3005 RMK A01 T00350022  RH  091%=      5-min Rain = 0
KMC4 140623Z 11003KT 04/02 A3005 RMK A01 T00350022  RH  091%=      5-min Rain = 0
KMC4 140624Z 10003KT 04/02 A3005 RMK A01 T00350022  RH  092%=      5-min Rain = 0
KMC4 140625Z 09003KT 04/02 A3005 RMK A01 T00350022  RH  092%=      5-min Rain = 0
KMC4 140626Z 07003KT 03/02 A3005 RMK A01 T00340022  RH  092%=      5-min Rain = 0
KMC4 140627Z 07003KT 03/02 A3005 RMK A01 T00340022  RH  092%=      5-min Rain = 0
KMC4 140628Z 06003KT 03/02 A3005 RMK A01 T00340022  RH  092%=      5-min Rain = 0
KMC4 140629Z 07003KT 03/02 A3005 RMK A01 T00340021  RH  092%=      5-min Rain = 0
KMC4 140630Z 07002KT 03/02 A3005 RMK A01 T00340021  RH  092%=      5-min Rain = 0
KMC4 140631Z 07002KT 03/02 A3005 RMK A01 T00340021  RH  092%=      5-min Rain = 0
KMC4 140632Z 06002KT 03/02 A3005 RMK A01 T00340021  RH  092%=      5-min Rain = 0
KMC4 140633Z 04002KT 03/02 A3005 RMK A01 T00330021  RH  092%=      5-min Rain = 0
KMC4 140634Z 05002KT 03/02 A3005 RMK A01 T00330021  RH  092%=      5-min Rain = 0
KMC4 140635Z 05002KT 03/02 A3005 RMK A01 T00330021  RH  092%=      5-min Rain = 0
KMC4 140636Z 07002KT 03/02 A3005 RMK A01 T00340021  RH  092%=      5-min Rain = 0
KMC4 140637Z 08002KT 03/02 A3005 RMK A01 T00340021  RH  091%=      5-min Rain = 0
KMC4 140638Z 08002KT 03/02 A3005 RMK A01 T00340021  RH  091%=      5-min Rain = 0
KMC4 140639Z 08002KT 03/02 A3005 RMK A01 T00340021  RH  091%=      5-min Rain = 0
KMC4 140640Z 07001KT 03/02 A3005 RMK A01 T00330020  RH  091%=      5-min Rain = 0
KMC4 140641Z 06002KT 03/02 A3005 RMK A01 T00330020  RH  091%=      5-min Rain = 0
KMC4 140642Z 07002KT 03/02 A3005 RMK A01 T00330020  RH  091%=      5-min Rain = 0
KMC4 140643Z 09002KT 03/02 A3005 RMK A01 T00320020  RH  091%=      5-min Rain = 0
KMC4 140644Z 13002KT 03/02 A3005 RMK A01 T00320020  RH  092%=      5-min Rain = 0
KMC4 140645Z 12002KT 03/02 A3005 RMK A01 T00320019  RH  092%=      5-min Rain = 0
KMC4 140646Z 10002KT 03/02 A3006 RMK A01 T00310019  RH  092%=      5-min Rain = 0
KMC4 140647Z 10002KT 03/02 A3006 RMK A01 T00310019  RH  092%=      5-min Rain = 0
KMC4 140648Z 13002KT 03/02 A3006 RMK A01 T00310019  RH  092%=      5-min Rain = 0
KMC4 140649Z 13002KT 03/02 A3006 RMK A01 T00300018  RH  092%=      5-min Rain = 0
KMC4 140650Z 11002KT 03/02 A3006 RMK A01 T00290018  RH  092%=      5-min Rain = 0
KMC4 140651Z 11002KT 03/02 A3006 RMK A01 T00280017  RH  092%=      5-min Rain = 0
KMC4 140652Z 12002KT 03/02 A3006 RMK A01 T00280018  RH  093%=      5-min Rain = 0
KMC4 140653Z 11002KT 03/02 A3006 RMK A01 T00280018  RH  093%=      5-min Rain = 0
KMC4 140654Z 10002KT 03/02 A3006 RMK A01 T00280019  RH  093%=      5-min Rain = 0
KMC4 140655Z 09002KT 03/02 A3006 RMK A01 T00280019  RH  093%=      5-min Rain = 0
KMC4 140656Z 09002KT 03/02 A3006 RMK A01 T00280019  RH  094%=      5-min Rain = 0
KMC4 140657Z 09002KT 03/02 A3006 RMK A01 T00290020  RH  094%=      5-min Rain = 0
KMC4 140658Z 10002KT 03/02 A3006 RMK A01 T00290020  RH  094%=      5-min Rain = 0
KMC4 140659Z 10003KT 03/02 A3006 RMK A01 T00300020  RH  094%=      5-min Rain = 0
KMC4 140700Z 10002KT 03/02 A3006 RMK A01 T00300020  RH  093%=      5-min Rain = 0
KMC4 140701Z 10002KT 03/02 A3006 RMK A01 T00290020  RH  093%=      5-min Rain = 0
KMC4 140702Z 09002KT 03/02 A3006 RMK A01 T00290019  RH  093%=      5-min Rain = 0
KMC4 140703Z 09002KT 03/02 A3006 RMK A01 T00300019  RH  093%=      5-min Rain = 0
KMC4 140704Z 09002KT 03/02 A3006 RMK A01 T00290019  RH  093%=      5-min Rain = 0
KMC4 140705Z 09003KT 03/02 A3006 RMK A01 T00290019  RH  093%=      5-min Rain = 0
KMC4 140706Z 08003KT 03/02 A3006 RMK A01 T00290019  RH  093%=      5-min Rain = 0
KMC4 140707Z 08003KT 03/02 A3006 RMK A01 T00290019  RH  093%=      5-min Rain = 0
KMC4 140708Z 08003KT 03/02 A3006 RMK A01 T00290019  RH  093%=      5-min Rain = 0
KMC4 140709Z 08002KT 03/02 A3006 RMK A01 T00290019  RH  093%=      5-min Rain = 0
KMC4 140710Z 08002KT 03/02 A3006 RMK A01 T00290019  RH  093%=      5-min Rain = 0
KMC4 140711Z 08002KT 03/02 A3006 RMK A01 T00290019  RH  093%=      5-min Rain = 0
KMC4 140712Z 09002KT 03/02 A3006 RMK A01 T00280018  RH  093%=      5-min Rain = 0
KMC4 140713Z 09002KT 03/02 A3006 RMK A01 T00280019  RH  093%=      5-min Rain = 0
KMC4 140714Z 08003KT 03/02 A3006 RMK A01 T00290019  RH  093%=      5-min Rain = 0
KMC4 140715Z 07003KT 03/02 A3006 RMK A01 T00280019  RH  094%=      5-min Rain = 0
KMC4 140716Z 06003KT 03/02 A3007 RMK A01 T00290019  RH  093%=      5-min Rain = 0
KMC4 140717Z 05002KT 03/02 A3007 RMK A01 T00290019  RH  093%=      5-min Rain = 0
KMC4 140718Z 06002KT 03/02 A3007 RMK A01 T00280019  RH  093%=      5-min Rain = 0
KMC4 140719Z 06002KT 03/02 A3007 RMK A01 T00280019  RH  093%=      5-min Rain = 0
KMC4 140720Z 05002KT 03/02 A3007 RMK A01 T00280019  RH  093%=      5-min Rain = 0
KMC4 140721Z 05002KT 03/02 A3007 RMK A01 T00280018  RH  093%=      5-min Rain = 0
KMC4 140722Z 05002KT 03/02 A3007 RMK A01 T00280019  RH  093%=      5-min Rain = 0
KMC4 140723Z 06003KT 03/02 A3007 RMK A01 T00280019  RH  094%=      5-min Rain = 0
KMC4 140724Z 06003KT 03/02 A3007 RMK A01 T00280019  RH  094%=      5-min Rain = 0
KMC4 140725Z 06002KT 03/02 A3007 RMK A01 T00280018  RH  094%=      5-min Rain = 0
KMC4 140726Z 07002KT 03/02 A3007 RMK A01 T00280018  RH  094%=      5-min Rain = 0
KMC4 140727Z 07002KT 03/02 A3007 RMK A01 T00280018  RH  094%=      5-min Rain = 0
KMC4 140728Z 07002KT 03/02 A3007 RMK A01 T00280019  RH  094%=      5-min Rain = 0
KMC4 140729Z 07002KT 03/02 A3007 RMK A01 T00280018  RH  094%=      5-min Rain = 0
KMC4 140730Z 06002KT 03/02 A3007 RMK A01 T00270018  RH  094%=      5-min Rain = 0
KMC4 140731Z 05003KT 03/02 A3007 RMK A01 T00270018  RH  094%=      5-min Rain = 0
KMC4 140732Z 05002KT 03/02 A3007 RMK A01 T00270018  RH  094%=      5-min Rain = 0
KMC4 140733Z 04003KT 03/02 A3007 RMK A01 T00270018  RH  094%=      5-min Rain = 0
KMC4 140734Z 04002KT 03/02 A3007 RMK A01 T00270018  RH  094%=      5-min Rain = 0
KMC4 140735Z 04003KT 03/02 A3007 RMK A01 T00270018  RH  094%=      5-min Rain = 0
KMC4 140736Z 04003KT 03/02 A3007 RMK A01 T00270018  RH  094%=      5-min Rain = 0
KMC4 140737Z 05003KT 03/02 A3007 RMK A01 T00270018  RH  094%=      5-min Rain = 0
KMC4 140738Z 05003KT 03/02 A3007 RMK A01 T00270018  RH  094%=      5-min Rain = 0
KMC4 140739Z 04003KT 03/02 A3007 RMK A01 T00270018  RH  094%=      5-min Rain = 0
KMC4 140740Z 04003KT 03/02 A3007 RMK A01 T00270019  RH  094%=      5-min Rain = 0
KMC4 140741Z 05002KT 03/02 A3007 RMK A01 T00270018  RH  094%=      5-min Rain = 0
KMC4 140742Z 05002KT 03/02 A3007 RMK A01 T00270018  RH  094%=      5-min Rain = 0
KMC4 140743Z 07002KT 03/02 A3007 RMK A01 T00270018  RH  094%=      5-min Rain = 0
KMC4 140744Z 06002KT 03/02 A3007 RMK A01 T00270018  RH  094%=      5-min Rain = 0
KMC4 140745Z 05003KT 03/02 A3007 RMK A01 T00260018  RH  094%=      5-min Rain = 0
KMC4 140746Z 06003KT 03/02 A3007 RMK A01 T00260018  RH  094%=      5-min Rain = 0
KMC4 140747Z 05004KT 03/02 A3008 RMK A01 T00260018  RH  094%=      5-min Rain = 0
KMC4 140748Z 06004KT 03/02 A3008 RMK A01 T00260018  RH  094%=      5-min Rain = 0
KMC4 140749Z 06003KT 03/02 A3008 RMK A01 T00260018  RH  094%=      5-min Rain = 0
KMC4 140750Z 06003KT 03/02 A3008 RMK A01 T00260018  RH  094%=      5-min Rain = 0
KMC4 140751Z 06003KT 03/02 A3008 RMK A01 T00260018  RH  094%=      5-min Rain = 0
KMC4 140752Z 06003KT 03/02 A3008 RMK A01 T00260018  RH  094%=      5-min Rain = 0
KMC4 140753Z 07003KT 03/02 A3008 RMK A01 T00260018  RH  094%=      5-min Rain = 0
KMC4 140754Z 06003KT 03/02 A3008 RMK A01 T00260018  RH  094%=      5-min Rain = 0
KMC4 140755Z 05003KT 03/02 A3008 RMK A01 T00260018  RH  094%=      5-min Rain = 0
KMC4 140756Z 06003KT 03/02 A3008 RMK A01 T00260018  RH  094%=      5-min Rain = 0
KMC4 140757Z 06004KT 03/02 A3008 RMK A01 T00260018  RH  094%=      5-min Rain = 0
KMC4 140758Z 06003KT 03/02 A3008 RMK A01 T00260018  RH  094%=      5-min Rain = 0
KMC4 140759Z 06003KT 03/02 A3008 RMK A01 T00260018  RH  094%=      5-min Rain = 0
KMC4 140800Z 07004KT 03/02 A3008 RMK A01 T00260018  RH  094%=      5-min Rain = 0
KMC4 140801Z 06003KT 03/02 A3008 RMK A01 T00260018  RH  095%=      5-min Rain = 0
KMC4 140802Z 07003KT 03/02 A3008 RMK A01 T00260018  RH  094%=      5-min Rain = 0
KMC4 140803Z 07004KT 03/02 A3008 RMK A01 T00260018  RH  094%=      5-min Rain = 0
KMC4 140804Z 07003KT 03/02 A3008 RMK A01 T00260018  RH  094%=      5-min Rain = 0
KMC4 140805Z 07004KT 03/02 A3008 RMK A01 T00260018  RH  094%=      5-min Rain = 0
KMC4 140806Z 07003KT 03/02 A3008 RMK A01 T00260018  RH  094%=      5-min Rain = 0
KMC4 140807Z 06004KT 03/02 A3008 RMK A01 T00270019  RH  094%=      5-min Rain = 0
KMC4 140808Z 07004KT 03/02 A3008 RMK A01 T00260018  RH  095%=      5-min Rain = 0
KMC4 140809Z 07004KT 03/02 A3008 RMK A01 T00260018  RH  095%=      5-min Rain = 0
KMC4 140810Z 07004KT 03/02 A3009 RMK A01 T00260018  RH  095%=      5-min Rain = 0
KMC4 140811Z 06004KT 03/02 A3009 RMK A01 T00260018  RH  095%=      5-min Rain = 0
KMC4 140812Z 06004KT 03/02 A3009 RMK A01 T00260018  RH  095%=      5-min Rain = 0
KMC4 140813Z 06004KT 03/02 A3009 RMK A01 T00260018  RH  095%=      5-min Rain = 0
KMC4 140814Z 06003KT 03/02 A3009 RMK A01 T00260019  RH  095%=      5-min Rain = 0
KMC4 140815Z 06004KT 03/02 A3009 RMK A01 T00260018  RH  095%=      5-min Rain = 0
KMC4 140816Z 06004KT 03/02 A3009 RMK A01 T00260018  RH  095%=      5-min Rain = 0
KMC4 140817Z 06004KT 03/02 A3009 RMK A01 T00260018  RH  095%=      5-min Rain = 0
KMC4 140818Z 06004KT 03/02 A3009 RMK A01 T00260018  RH  094%=      5-min Rain = 0
KMC4 140819Z 06004KT 03/02 A3009 RMK A01 T00260018  RH  095%=      5-min Rain = 0
KMC4 140820Z 06004KT 03/02 A3009 RMK A01 T00260018  RH  095%=      5-min Rain = 0
KMC4 140821Z 07003KT 03/02 A3009 RMK A01 T00260018  RH  095%=      5-min Rain = 0
KMC4 140822Z 08003KT 03/02 A3009 RMK A01 T00260018  RH  095%=      5-min Rain = 0
KMC4 140823Z 09003KT 03/02 A3009 RMK A01 T00260018  RH  095%=      5-min Rain = 0
KMC4 140824Z 08003KT 03/02 A3009 RMK A01 T00260018  RH  095%=      5-min Rain = 0
KMC4 140825Z 07003KT 03/02 A3009 RMK A01 T00260018  RH  095%=      5-min Rain = 0
KMC4 140826Z 07003KT 03/02 A3009 RMK A01 T00260018  RH  095%=      5-min Rain = 0
KMC4 140827Z 07003KT 03/02 A3009 RMK A01 T00250018  RH  095%=      5-min Rain = 0
KMC4 140828Z 07003KT 03/02 A3009 RMK A01 T00250018  RH  095%=      5-min Rain = 0
KMC4 140829Z 06004KT 03/02 A3009 RMK A01 T00250018  RH  095%=      5-min Rain = 0
KMC4 140830Z 07004KT 03/02 A3009 RMK A01 T00250018  RH  095%=      5-min Rain = 0
KMC4 140831Z 06004KT 03/02 A3009 RMK A01 T00250018  RH  095%=      5-min Rain = 0
KMC4 140832Z 06003KT 03/02 A3009 RMK A01 T00250018  RH  095%=      5-min Rain = 0
KMC4 140833Z 07003KT 03/02 A3009 RMK A01 T00250018  RH  095%=      5-min Rain = 0
KMC4 140834Z 07003KT 03/02 A3009 RMK A01 T00250017  RH  095%=      5-min Rain = 0
KMC4 140835Z 07003KT 03/02 A3009 RMK A01 T00250018  RH  095%=      5-min Rain = 0
KMC4 140836Z 06003KT 03/02 A3009 RMK A01 T00250018  RH  095%=      5-min Rain = 0
KMC4 140837Z 06002KT 03/02 A3009 RMK A01 T00250018  RH  095%=      5-min Rain = 0
KMC4 140838Z 05002KT 03/02 A3009 RMK A01 T00250017  RH  095%=      5-min Rain = 0
KMC4 140839Z 05002KT 02/02 A3009 RMK A01 T00240017  RH  095%=      5-min Rain = 0
KMC4 140840Z 05002KT 02/02 A3009 RMK A01 T00240017  RH  095%=      5-min Rain = 0
KMC4 140841Z 04002KT 02/02 A3009 RMK A01 T00240017  RH  095%=      5-min Rain = 0
KMC4 140842Z 04003KT 02/02 A3009 RMK A01 T00240017  RH  095%=      5-min Rain = 0
KMC4 140843Z 04003KT 02/02 A3009 RMK A01 T00240017  RH  095%=      5-min Rain = 0
KMC4 140844Z 05002KT 02/02 A3009 RMK A01 T00240017  RH  095%=      5-min Rain = 0
KMC4 140845Z 05002KT 02/02 A3009 RMK A01 T00240017  RH  095%=      5-min Rain = 0
KMC4 140846Z 05003KT 02/02 A3009 RMK A01 T00240017  RH  095%=      5-min Rain = 0
KMC4 140847Z 06003KT 02/02 A3009 RMK A01 T00240017  RH  095%=      5-min Rain = 0
KMC4 140848Z 07002KT 02/02 A301 RMK A01 T00230017  RH  095%=      5-min Rain = 0
KMC4 140849Z 06003KT 02/02 A301 RMK A01 T00230016  RH  095%=      5-min Rain = 0
KMC4 140850Z 06003KT 02/02 A301 RMK A01 T00230016  RH  095%=      5-min Rain = 0
KMC4 140851Z 07003KT 02/02 A301 RMK A01 T00230016  RH  095%=      5-min Rain = 0
KMC4 140852Z 07002KT 02/02 A301 RMK A01 T00230016  RH  095%=      5-min Rain = 0
KMC4 140853Z 06002KT 02/02 A301 RMK A01 T00230017  RH  096%=      5-min Rain = 0
KMC4 140854Z 06002KT 02/02 A301 RMK A01 T00230017  RH  096%=      5-min Rain = 0
KMC4 140855Z 07002KT 02/02 A301 RMK A01 T00230017  RH  096%=      5-min Rain = 0
KMC4 140856Z 06003KT 02/02 A301 RMK A01 T00230017  RH  096%=      5-min Rain = 0
KMC4 140857Z 05002KT 02/02 A301 RMK A01 T00230016  RH  096%=      5-min Rain = 0
KMC4 140858Z 05002KT 02/02 A301 RMK A01 T00230016  RH  096%=      5-min Rain = 0
KMC4 140859Z 06002KT 02/02 A301 RMK A01 T00230016  RH  096%=      5-min Rain = 0
KMC4 140900Z 06002KT 02/02 A301 RMK A01 T00220016  RH  096%=      5-min Rain = 0
KMC4 140901Z 06002KT 02/02 A301 RMK A01 T00220016  RH  096%=      5-min Rain = 0
KMC4 140902Z 07001KT 02/02 A301 RMK A01 T00220016  RH  096%=      5-min Rain = 0
KMC4 140903Z 06001KT 02/02 A301 RMK A01 T00210015  RH  095%=      5-min Rain = 0
KMC4 140904Z 05002KT 02/01 A301 RMK A01 T00210014  RH  095%=      5-min Rain = 0
KMC4 140905Z 05002KT 02/01 A301 RMK A01 T00200013  RH  095%=      5-min Rain = 0
KMC4 140906Z 05002KT 02/01 A301 RMK A01 T00200013  RH  095%=      5-min Rain = 0
KMC4 140907Z 05002KT 02/01 A3011 RMK A01 T00200014  RH  096%=      5-min Rain = 0
KMC4 140908Z 04001KT 02/01 A3011 RMK A01 T00200014  RH  096%=      5-min Rain = 0
KMC4 140909Z 06001KT 02/02 A3011 RMK A01 T00210015  RH  096%=      5-min Rain = 0
KMC4 140910Z 05000KT 02/02 A3011 RMK A01 T00210015  RH  096%=      5-min Rain = 0
KMC4 140911Z 05002KT 02/02 A3011 RMK A01 T00210016  RH  096%=      5-min Rain = 0
KMC4 140912Z 05003KT 02/02 A3011 RMK A01 T00210015  RH  096%=      5-min Rain = 0
KMC4 140913Z 05002KT 02/02 A3011 RMK A01 T00210016  RH  096%=      5-min Rain = 0
KMC4 140914Z 04003KT 02/02 A3011 RMK A01 T00220016  RH  096%=      5-min Rain = 0
KMC4 140915Z 04004KT 02/02 A3011 RMK A01 T00210016  RH  096%=      5-min Rain = 0
KMC4 140916Z 04004KT 02/02 A3011 RMK A01 T00210015  RH  096%=      5-min Rain = 0
KMC4 140917Z 04003KT 02/02 A3011 RMK A01 T00210015  RH  096%=      5-min Rain = 0
KMC4 140918Z 04004KT 02/02 A3011 RMK A01 T00210015  RH  096%=      5-min Rain = 0
KMC4 140919Z 05004KT 02/02 A3011 RMK A01 T00210015  RH  096%=      5-min Rain = 0
KMC4 140920Z 05004KT 02/02 A3011 RMK A01 T00220016  RH  096%=      5-min Rain = 0
KMC4 140921Z 05004KT 02/02 A3011 RMK A01 T00220017  RH  096%=      5-min Rain = 0
KMC4 140922Z 05004KT 02/02 A3011 RMK A01 T00230017  RH  096%=      5-min Rain = 0
KMC4 140923Z 04005KT 02/02 A3011 RMK A01 T00230018  RH  096%=      5-min Rain = 0
KMC4 140924Z 04005KT 02/02 A3011 RMK A01 T00240018  RH  096%=      5-min Rain = 0
KMC4 140925Z 04005KT 02/02 A3011 RMK A01 T00240019  RH  096%=      5-min Rain = 0
KMC4 140926Z 04004KT 03/02 A3011 RMK A01 T00250020  RH  096%=      5-min Rain = 0
KMC4 140927Z 05004KT 03/02 A3011 RMK A01 T00260020  RH  096%=      5-min Rain = 0
KMC4 140928Z 06003KT 03/02 A3011 RMK A01 T00250019  RH  096%=      5-min Rain = 0
KMC4 140929Z 05003KT 03/02 A3011 RMK A01 T00250019  RH  096%=      5-min Rain = 0
KMC4 140930Z 04002KT 03/02 A3011 RMK A01 T00250019  RH  096%=      5-min Rain = 0
KMC4 140931Z 04003KT 03/02 A3011 RMK A01 T00260019  RH  096%=      5-min Rain = 0
KMC4 140932Z 04004KT 03/02 A3011 RMK A01 T00250019  RH  096%=      5-min Rain = 0
KMC4 140933Z 05004KT 03/02 A3011 RMK A01 T00250019  RH  096%=      5-min Rain = 0
KMC4 140934Z 04003KT 03/02 A3011 RMK A01 T00250019  RH  096%=      5-min Rain = 0
KMC4 140935Z 04003KT 03/02 A3011 RMK A01 T00250019  RH  096%=      5-min Rain = 0
KMC4 140936Z 04003KT 03/02 A3011 RMK A01 T00250019  RH  096%=      5-min Rain = 0
KMC4 140937Z 04003KT 03/02 A3011 RMK A01 T00250019  RH  096%=      5-min Rain = 0
KMC4 140938Z 05003KT 03/02 A3011 RMK A01 T00250019  RH  096%=      5-min Rain = 0
KMC4 140939Z 05003KT 03/02 A3011 RMK A01 T00250018  RH  096%=      5-min Rain = 0
KMC4 140940Z 05003KT 02/02 A3011 RMK A01 T00240018  RH  096%=      5-min Rain = 0
KMC4 140941Z 05004KT 03/02 A3011 RMK A01 T00250018  RH  096%=      5-min Rain = 0
KMC4 140942Z 04003KT 03/02 A3011 RMK A01 T00250018  RH  096%=      5-min Rain = 0
KMC4 140943Z 04004KT 03/02 A3011 RMK A01 T00250018  RH  096%=      5-min Rain = 0
KMC4 140944Z 05005KT 02/02 A3011 RMK A01 T00240018  RH  096%=      5-min Rain = 0
KMC4 140945Z 05004KT 02/02 A3011 RMK A01 T00240018  RH  096%=      5-min Rain = 0
KMC4 140946Z 05005KT 02/02 A3012 RMK A01 T00240019  RH  096%=      5-min Rain = 0
KMC4 140947Z 06005KT 02/02 A3012 RMK A01 T00240019  RH  096%=      5-min Rain = 0
KMC4 140948Z 06005KT 02/02 A3012 RMK A01 T00240018  RH  096%=      5-min Rain = 0
KMC4 140949Z 06004KT 02/02 A3012 RMK A01 T00240018  RH  096%=      5-min Rain = 0
KMC4 140950Z 07004KT 02/02 A3012 RMK A01 T00240018  RH  096%=      5-min Rain = 0
KMC4 140951Z 07004KT 02/02 A3012 RMK A01 T00240019  RH  096%=      5-min Rain = 0
KMC4 140952Z 08004KT 02/02 A3012 RMK A01 T00240018  RH  096%=      5-min Rain = 0
KMC4 140953Z 08004KT 02/02 A3012 RMK A01 T00240018  RH  096%=      5-min Rain = 0
KMC4 140954Z 08004KT 02/02 A3012 RMK A01 T00240018  RH  096%=      5-min Rain = 0
KMC4 140955Z 08004KT 02/02 A3012 RMK A01 T00240018  RH  096%=      5-min Rain = 0
KMC4 140956Z 07005KT 02/02 A3012 RMK A01 T00240018  RH  096%=      5-min Rain = 0
KMC4 140957Z 06006KT 02/02 A3012 RMK A01 T00230017  RH  096%=      5-min Rain = 0
KMC4 140958Z 06005KT 02/02 A3012 RMK A01 T00230018  RH  096%=      5-min Rain = 0
KMC4 140959Z 06007KT 02/02 A3012 RMK A01 T00240018  RH  096%=      5-min Rain = 0
KMC4 141000Z 05007KT 02/02 A3012 RMK A01 T00240018  RH  096%=      5-min Rain = 0
KMC4 141001Z 05006KT 02/02 A3012 RMK A01 T00240018  RH  096%=      5-min Rain = 0
KMC4 141002Z 05006KT 02/02 A3012 RMK A01 T00240018  RH  096%=      5-min Rain = 0
KMC4 141003Z 05006KT 02/02 A3012 RMK A01 T00240019  RH  096%=      5-min Rain = 0
KMC4 141004Z 05006KT 02/02 A3013 RMK A01 T00240018  RH  096%=      5-min Rain = 0
KMC4 141005Z 04006KT 02/02 A3013 RMK A01 T00240019  RH  096%=      5-min Rain = 0
KMC4 141006Z 04007KT 02/02 A3013 RMK A01 T00240019  RH  096%=      5-min Rain = 0
KMC4 141007Z 04006KT 02/02 A3013 RMK A01 T00240018  RH  096%=      5-min Rain = 0
KMC4 141008Z 04006KT 02/02 A3013 RMK A01 T00240018  RH  096%=      5-min Rain = 0
KMC4 141009Z 04006KT 02/02 A3013 RMK A01 T00230018  RH  097%=      5-min Rain = 0
KMC4 141010Z 04006KT 02/02 A3013 RMK A01 T00230018  RH  097%=      5-min Rain = 0
KMC4 141011Z 04006KT 02/02 A3013 RMK A01 T00220018  RH  097%=      5-min Rain = 0
KMC4 141012Z 04006KT 02/02 A3013 RMK A01 T00230018  RH  097%=      5-min Rain = 0
KMC4 141013Z 04007KT 02/02 A3013 RMK A01 T00230018  RH  097%=      5-min Rain = 0
KMC4 141014Z 04006KT 02/02 A3013 RMK A01 T00230019  RH  097%=      5-min Rain = 0
KMC4 141015Z 04006KT 02/02 A3013 RMK A01 T00220018  RH  097%=      5-min Rain = 0
KMC4 141016Z 04006KT 02/02 A3013 RMK A01 T00230019  RH  097%=      5-min Rain = 0
KMC4 141017Z 04007KT 02/02 A3013 RMK A01 T00230019  RH  098%=      5-min Rain = 0
KMC4 141018Z 05006KT 02/02 A3013 RMK A01 T00230019  RH  098%=      5-min Rain = 0
KMC4 141019Z 05007KT 02/02 A3013 RMK A01 T00230019  RH  098%=      5-min Rain = 0
KMC4 141020Z 05006KT 02/02 A3013 RMK A01 T00230020  RH  098%=      5-min Rain = 0
KMC4 141021Z 05006KT 02/02 A3013 RMK A01 T00230020  RH  098%=      5-min Rain = 0
KMC4 141022Z 05006KT 02/02 A3013 RMK A01 T00230020  RH  098%=      5-min Rain = 0
KMC4 141023Z 05006KT 02/02 A3013 RMK A01 T00230020  RH  098%=      5-min Rain = 0
KMC4 141024Z 05007KT 02/02 A3013 RMK A01 T00230020  RH  098%=      5-min Rain = 0
KMC4 141025Z 04006KT 02/02 A3013 RMK A01 T00230020  RH  098%=      5-min Rain = 0
KMC4 141026Z 04005KT 02/02 A3013 RMK A01 T00230020  RH  098%=      5-min Rain = 0
KMC4 141027Z 04006KT 02/02 A3013 RMK A01 T00230021  RH  098%=      5-min Rain = 0
KMC4 141028Z 04006KT 02/02 A3013 RMK A01 T00230021  RH  098%=      5-min Rain = 0
KMC4 141029Z 04006KT 02/02 A3013 RMK A01 T00240021  RH  098%=      5-min Rain = 0
KMC4 141030Z 04006KT 02/02 A3014 RMK A01 T00230021  RH  098%=      5-min Rain = 0
KMC4 141031Z 04006KT 02/02 A3014 RMK A01 T00230021  RH  098%=      5-min Rain = 0
KMC4 141032Z 04005KT 02/02 A3014 RMK A01 T00230021  RH  098%=      5-min Rain = 0
KMC4 141033Z 03005KT 02/02 A3014 RMK A01 T00240021  RH  098%=      5-min Rain = 0
KMC4 141034Z 03005KT 02/02 A3014 RMK A01 T00240021  RH  098%=      5-min Rain = 0
KMC4 141035Z 04005KT 02/02 A3014 RMK A01 T00230021  RH  099%=      5-min Rain = 0
KMC4 141036Z 04004KT 02/02 A3014 RMK A01 T00230021  RH  099%=      5-min Rain = 0
KMC4 141037Z 04004KT 02/02 A3014 RMK A01 T00240021  RH  099%=      5-min Rain = 0
KMC4 141038Z 03004KT 02/02 A3014 RMK A01 T00230021  RH  099%=      5-min Rain = 0
KMC4 141039Z 04004KT 02/02 A3014 RMK A01 T00240022  RH  099%=      5-min Rain = 0
KMC4 141040Z 03004KT 02/02 A3014 RMK A01 T00230021  RH  099%=      5-min Rain = 0
KMC4 141041Z 04005KT 02/02 A3014 RMK A01 T00230021  RH  099%=      5-min Rain = 0
KMC4 141042Z 04005KT 02/02 A3014 RMK A01 T00230021  RH  099%=      5-min Rain = 0
KMC4 141043Z 04004KT 02/02 A3014 RMK A01 T00240022  RH  099%=      5-min Rain = 0
KMC4 141044Z 05004KT 02/02 A3014 RMK A01 T00230021  RH  099%=      5-min Rain = 0
KMC4 141045Z 05004KT 02/02 A3014 RMK A01 T00230021  RH  099%=      5-min Rain = 0
KMC4 141046Z 05004KT 02/02 A3014 RMK A01 T00230022  RH  099%=      5-min Rain = 0
KMC4 141047Z 05004KT 02/02 A3015 RMK A01 T00230021  RH  099%=      5-min Rain = 0
KMC4 141048Z 05004KT 02/02 A3015 RMK A01 T00230021  RH  099%=      5-min Rain = 0
KMC4 141049Z 05004KT 02/02 A3015 RMK A01 T00230021  RH  099%=      5-min Rain = 0
KMC4 141050Z 05005KT 02/02 A3015 RMK A01 T00220021  RH  099%=      5-min Rain = 0
KMC4 141051Z 05005KT 02/02 A3015 RMK A01 T00230021  RH  099%=      5-min Rain = 0
KMC4 141052Z 05005KT 02/02 A3015 RMK A01 T00220020  RH  099%=      5-min Rain = 0
KMC4 141053Z 05004KT 02/02 A3015 RMK A01 T00220021  RH  099%=      5-min Rain = 0
KMC4 141054Z 06003KT 02/02 A3015 RMK A01 T00220021  RH  099%=      5-min Rain = 0
KMC4 141055Z 06004KT 02/02 A3015 RMK A01 T00220021  RH  099%=      5-min Rain = 0
KMC4 141056Z 06004KT 02/02 A3015 RMK A01 T00220020  RH  099%=      5-min Rain = 0
KMC4 141057Z 06003KT 02/02 A3015 RMK A01 T00220020  RH  099%=      5-min Rain = 0
KMC4 141058Z 06003KT 02/02 A3015 RMK A01 T00220020  RH  099%=      5-min Rain = 0
KMC4 141059Z 06004KT 02/02 A3015 RMK A01 T00220021  RH  099%=      5-min Rain = 0
KMC4 141100Z 06005KT 02/02 A3015 RMK A01 T00220020  RH  099%=      5-min Rain = 0
KMC4 141101Z 06004KT 02/02 A3015 RMK A01 T00220021  RH  099%=      5-min Rain = 0
KMC4 141102Z 06004KT 02/02 A3015 RMK A01 T00220020  RH  099%=      5-min Rain = 0
KMC4 141103Z 06005KT 02/02 A3015 RMK A01 T00220020  RH  099%=      5-min Rain = 0
KMC4 141104Z 05004KT 02/02 A3015 RMK A01 T00220020  RH  099%=      5-min Rain = 0
KMC4 141105Z 06003KT 02/02 A3015 RMK A01 T00220020  RH  099%=      5-min Rain = 0
KMC4 141106Z 06004KT 02/02 A3015 RMK A01 T00220021  RH  099%=      5-min Rain = 0
KMC4 141107Z 07004KT 02/02 A3015 RMK A01 T00220021  RH  099%=      5-min Rain = 0
KMC4 141108Z 07005KT 02/02 A3015 RMK A01 T00220021  RH  099%=      5-min Rain = 0
KMC4 141109Z 06005KT 02/02 A3015 RMK A01 T00220021  RH  099%=      5-min Rain = 0
KMC4 141110Z 07003KT 02/02 A3015 RMK A01 T00220021  RH  099%=      5-min Rain = 0
KMC4 141111Z 06002KT 02/02 A3015 RMK A01 T00230022  RH  099%=      5-min Rain = 0
KMC4 141112Z 07004KT 02/02 A3015 RMK A01 T00230022  RH  099%=      5-min Rain = 0
KMC4 141113Z 07004KT 02/02 A3015 RMK A01 T00230022  RH  099%=      5-min Rain = 0
KMC4 141114Z 07004KT 02/02 A3015 RMK A01 T00230022  RH  099%=      5-min Rain = 0
KMC4 141115Z 07003KT 02/02 A3015 RMK A01 T00240023  RH  099%=      5-min Rain = 0
KMC4 141116Z 08003KT 02/02 A3015 RMK A01 T00230022  RH  099%=      5-min Rain = 0
KMC4 141117Z 07004KT 02/02 A3015 RMK A01 T00240023  RH  099%=      5-min Rain = 0
KMC4 141118Z 07003KT 02/02 A3015 RMK A01 T00240023  RH  099%=      5-min Rain = 0
KMC4 141119Z 08004KT 02/02 A3015 RMK A01 T00240023  RH  099%=      5-min Rain = 0
KMC4 141120Z 07004KT 02/02 A3015 RMK A01 T00240023  RH  099%=      5-min Rain = 0
KMC4 141121Z 07004KT 02/02 A3015 RMK A01 T00240023  RH  099%=      5-min Rain = 0
KMC4 141122Z 06004KT 02/02 A3015 RMK A01 T00240023  RH  099%=      5-min Rain = 0
KMC4 141123Z 06004KT 02/02 A3015 RMK A01 T00240023  RH  099%=      5-min Rain = 0
KMC4 141124Z 07004KT 02/02 A3015 RMK A01 T00240023  RH  099%=      5-min Rain = 0
KMC4 141125Z 07005KT 02/02 A3015 RMK A01 T00240023  RH  099%=      5-min Rain = 0
KMC4 141126Z 07006KT 02/02 A3015 RMK A01 T00230023  RH  099%=      5-min Rain = 0
KMC4 141127Z 07006KT 02/02 A3015 RMK A01 T00230022  RH  099%=      5-min Rain = 0
KMC4 141128Z 07006KT 02/02 A3016 RMK A01 T00220021  RH  099%=      5-min Rain = 0
KMC4 141129Z 07006KT 02/02 A3016 RMK A01 T00220021  RH  099%=      5-min Rain = 0
KMC4 141130Z 07005KT 02/02 A3016 RMK A01 T00220021  RH  099%=      5-min Rain = 0
KMC4 141131Z 07007KT 02/02 A3016 RMK A01 T00220021  RH  099%=      5-min Rain = 0
KMC4 141132Z 06007KT 02/02 A3016 RMK A01 T00210020  RH  100%=      5-min Rain = 0
KMC4 141133Z 07006KT 02/02 A3016 RMK A01 T00210020  RH  100%=      5-min Rain = 0
KMC4 141134Z 07005KT 02/02 A3016 RMK A01 T00210020  RH  100%=      5-min Rain = 0
KMC4 141135Z 06006KT 02/02 A3016 RMK A01 T00210020  RH  100%=      5-min Rain = 0
KMC4 141136Z 06006KT 02/02 A3016 RMK A01 T00210020  RH  100%=      5-min Rain = 0
KMC4 141137Z 06006KT 02/02 A3016 RMK A01 T00210020  RH  100%=      5-min Rain = 0
KMC4 141138Z 06007KT 02/02 A3017 RMK A01 T00210020  RH  100%=      5-min Rain = 0
KMC4 141139Z 06007KT 02/02 A3017 RMK A01 T00210021  RH  100%=      5-min Rain = 0
KMC4 141140Z 07006KT 02/02 A3017 RMK A01 T00210021  RH  100%=      5-min Rain = 0
KMC4 141141Z 07006KT 02/02 A3016 RMK A01 T00210020  RH  100%=      5-min Rain = 0
KMC4 141142Z 06006KT 02/02 A3016 RMK A01 T00210021  RH  100%=      5-min Rain = 0
KMC4 141143Z 06006KT 02/02 A3016 RMK A01 T00210021  RH  100%=      5-min Rain = 0
KMC4 141144Z 06006KT 02/02 A3016 RMK A01 T00210021  RH  100%=      5-min Rain = 0
KMC4 141145Z 07006KT 02/02 A3016 RMK A01 T00210021  RH  100%=      5-min Rain = 0
KMC4 141146Z 07006KT 02/02 A3016 RMK A01 T00210021  RH  100%=      5-min Rain = 0
KMC4 141147Z 07006KT 02/02 A3016 RMK A01 T00210021  RH  100%=      5-min Rain = 0
KMC4 141148Z 06007KT 02/02 A3017 RMK A01 T00220022  RH  100%=      5-min Rain = 0
KMC4 141149Z 06006KT 02/02 A3017 RMK A01 T00220022  RH  100%=      5-min Rain = 0
KMC4 141150Z 06006KT 02/02 A3017 RMK A01 T00220022  RH  100%=      5-min Rain = 0
KMC4 141151Z 06007KT 02/02 A3017 RMK A01 T00220022  RH  100%=      5-min Rain = 0
KMC4 141152Z 06006KT 02/02 A3017 RMK A01 T00220022  RH  100%=      5-min Rain = 0
KMC4 141153Z 06006KT 02/02 A3017 RMK A01 T00220022  RH  100%=      5-min Rain = 0
KMC4 141154Z 06005KT 02/02 A3017 RMK A01 T00220022  RH  100%=      5-min Rain = 0
KMC4 141155Z 06007KT 02/02 A3017 RMK A01 T00220022  RH  100%=      5-min Rain = 0
KMC4 141156Z 05006KT 02/02 A3017 RMK A01 T00220022  RH  100%=      5-min Rain = 0
KMC4 141157Z 05005KT 02/02 A3017 RMK A01 T00220022  RH  100%=      5-min Rain = 0
KMC4 141158Z 05005KT 02/02 A3017 RMK A01 T00220022  RH  100%=      5-min Rain = 0
KMC4 141159Z 06003KT 02/02 A3017 RMK A01 T00220022  RH  100%=      5-min Rain = 0
KMC4 141200Z 05004KT 02/02 A3017 RMK A01 T00230023  RH  100%=      5-min Rain = 0
KMC4 141201Z 07004KT 02/02 A3017 RMK A01 T00230023  RH  100%=      5-min Rain = 0
KMC4 141202Z 07004KT 02/02 A3017 RMK A01 T00230023  RH  100%=      5-min Rain = 0
KMC4 141203Z 06004KT 02/02 A3017 RMK A01 T00230023  RH  100%=      5-min Rain = 0
KMC4 141204Z 07004KT 02/02 A3017 RMK A01 T00230023  RH  100%=      5-min Rain = 0
KMC4 141205Z 08003KT 02/02 A3018 RMK A01 T00230023  RH  100%=      5-min Rain = 0
KMC4 141206Z 08003KT 02/02 A3018 RMK A01 T00230023  RH  100%=      5-min Rain = 0
KMC4 141207Z 07003KT 02/02 A3018 RMK A01 T00230023  RH  100%=      5-min Rain = 0
KMC4 141208Z 07002KT 02/02 A3018 RMK A01 T00240024  RH  100%=      5-min Rain = 0
KMC4 141209Z 06002KT 02/02 A3018 RMK A01 T00230023  RH  100%=      5-min Rain = 0
KMC4 141210Z 07002KT 02/02 A3018 RMK A01 T00240024  RH  100%=      5-min Rain = 0
KMC4 141211Z 06002KT 02/02 A3018 RMK A01 T00240024  RH  100%=      5-min Rain = 0
KMC4 141212Z 05002KT 02/02 A3018 RMK A01 T00230023  RH  100%=      5-min Rain = 0
KMC4 141213Z 04000KT 02/02 A3018 RMK A01 T00240024  RH  100%=      5-min Rain = 0
KMC4 141214Z 00000KT 02/02 A3018 RMK A01 T00240024  RH  100%=      5-min Rain = 0
KMC4 141215Z 03002KT 02/02 A3018 RMK A01 T00230023  RH  100%=      5-min Rain = 0
KMC4 141216Z 35002KT 02/02 A3018 RMK A01 T00240024  RH  100%=      5-min Rain = 0
KMC4 141217Z 33001KT 02/02 A3018 RMK A01 T00240024  RH  100%=      5-min Rain = 0
KMC4 141218Z 00000KT 02/02 A3018 RMK A01 T00240024  RH  100%=      5-min Rain = 0
KMC4 141219Z 05001KT 02/02 A3019 RMK A01 T00240023  RH  100%=      5-min Rain = 0
KMC4 141220Z 03001KT 02/02 A3019 RMK A01 T00230023  RH  100%=      5-min Rain = 0
KMC4 141221Z 10001KT 02/02 A3019 RMK A01 T00230023  RH  100%=      5-min Rain = 0
KMC4 141222Z 07002KT 02/02 A3019 RMK A01 T00230023  RH  100%=      5-min Rain = 0
KMC4 141223Z 06002KT 02/02 A3019 RMK A01 T00230023  RH  100%=      5-min Rain = 0
KMC4 141224Z 06000KT 02/02 A3019 RMK A01 T00230023  RH  100%=      5-min Rain = 0
KMC4 141225Z 00000KT 02/02 A3019 RMK A01 T00230023  RH  100%=      5-min Rain = 0
KMC4 141226Z 35001KT 02/02 A3019 RMK A01 T00230023  RH  100%=      5-min Rain = 0
KMC4 141227Z 34001KT 02/02 A3019 RMK A01 T00230023  RH  100%=      5-min Rain = 0
KMC4 141228Z 34001KT 02/02 A3019 RMK A01 T00220022  RH  100%=      5-min Rain = 0
KMC4 141229Z 30001KT 02/02 A3019 RMK A01 T00220022  RH  100%=      5-min Rain = 0
KMC4 141230Z 31002KT 02/02 A3019 RMK A01 T00220022  RH  100%=      5-min Rain = 0
KMC4 141231Z 32001KT 02/02 A302 RMK A01 T00220022  RH  100%=      5-min Rain = 0
KMC4 141232Z 29001KT 02/02 A3019 RMK A01 T00220022  RH  100%=      5-min Rain = 0
KMC4 141233Z 34002KT 02/02 A302 RMK A01 T00220022  RH  100%=      5-min Rain = 0
KMC4 141234Z 31002KT 02/02 A302 RMK A01 T00220022  RH  100%=      5-min Rain = 0
KMC4 141235Z 34002KT 02/02 A302 RMK A01 T00220022  RH  100%=      5-min Rain = 0
KMC4 141236Z 34002KT 02/02 A302 RMK A01 T00220022  RH  100%=      5-min Rain = 0
KMC4 141237Z 32002KT 02/02 A302 RMK A01 T00210021  RH  100%=      5-min Rain = 0
KMC4 141238Z 30003KT 02/02 A302 RMK A01 T00210021  RH  100%=      5-min Rain = 0
KMC4 141239Z 30003KT 02/02 A302 RMK A01 T00190019  RH  100%=      5-min Rain = 0
KMC4 141240Z 30003KT 02/02 A3021 RMK A01 T00180018  RH  100%=      5-min Rain = 0
KMC4 141241Z 30003KT 02/02 A3021 RMK A01 T00170017  RH  100%=      5-min Rain = 0
KMC4 141242Z 30003KT 02/02 A3021 RMK A01 T00160016  RH  100%=      5-min Rain = 0
KMC4 141243Z 30003KT 02/02 A3021 RMK A01 T00150015  RH  100%=      5-min Rain = 0
KMC4 141244Z 30003KT 02/02 A3021 RMK A01 T00150015  RH  100%=      5-min Rain = 0
KMC4 141245Z 29003KT 02/02 A3021 RMK A01 T00150015  RH  100%=      5-min Rain = 0
KMC4 141246Z 28003KT 02/02 A3021 RMK A01 T00150015  RH  100%=      5-min Rain = 0
KMC4 141247Z 29003KT 02/02 A3021 RMK A01 T00150015  RH  100%=      5-min Rain = 0
KMC4 141248Z 30002KT 02/02 A3022 RMK A01 T00150015  RH  100%=      5-min Rain = 0
KMC4 141249Z 29003KT 02/02 A3022 RMK A01 T00150015  RH  100%=      5-min Rain = 0
KMC4 141250Z 28003KT 02/02 A3022 RMK A01 T00150015  RH  100%=      5-min Rain = 0
KMC4 141251Z 28004KT 02/02 A3022 RMK A01 T00150015  RH  100%=      5-min Rain = 0
KMC4 141252Z 29003KT 02/02 A3022 RMK A01 T00150015  RH  100%=      5-min Rain = 0
KMC4 141253Z 30003KT 02/02 A3022 RMK A01 T00150015  RH  100%=      5-min Rain = 0
KMC4 141254Z 29003KT 02/02 A3022 RMK A01 T00160016  RH  100%=      5-min Rain = 0
KMC4 141255Z 28004KT 02/02 A3022 RMK A01 T00160016  RH  100%=      5-min Rain = 0
KMC4 141256Z 27004KT 02/02 A3022 RMK A01 T00160016  RH  100%=      5-min Rain = 0
KMC4 141257Z 26004KT 02/02 A3022 RMK A01 T00170017  RH  100%=      5-min Rain = 0
KMC4 141258Z 27003KT 02/02 A3022 RMK A01 T00170017  RH  100%=      5-min Rain = 0
KMC4 141259Z 32001KT 02/02 A3023 RMK A01 T00170017  RH  100%=      5-min Rain = 0
KMC4 141300Z 29002KT 02/02 A3023 RMK A01 T00170017  RH  100%=      5-min Rain = 0
KMC4 141301Z 28003KT 02/02 A3022 RMK A01 T00170017  RH  100%=      5-min Rain = 0
KMC4 141302Z 27004KT 02/02 A3022 RMK A01 T00170017  RH  100%=      5-min Rain = 0
KMC4 141303Z 27004KT 02/02 A3022 RMK A01 T00170017  RH  100%=      5-min Rain = 0
KMC4 141304Z 28004KT 02/02 A3023 RMK A01 T00170017  RH  100%=      5-min Rain = 0
KMC4 141305Z 29004KT 02/02 A3023 RMK A01 T00170017  RH  100%=      5-min Rain = 0
KMC4 141306Z 29004KT 02/02 A3023 RMK A01 T00180018  RH  100%=      5-min Rain = 0
KMC4 141307Z 28004KT 02/02 A3023 RMK A01 T00170017  RH  100%=      5-min Rain = 0
KMC4 141308Z 28004KT 02/02 A3023 RMK A01 T00170017  RH  100%=      5-min Rain = 0
KMC4 141309Z 28004KT 02/02 A3023 RMK A01 T00170017  RH  100%=      5-min Rain = 0
KMC4 141310Z 28004KT 02/02 A3023 RMK A01 T00170017  RH  100%=      5-min Rain = 0
KMC4 141311Z 29004KT 02/02 A3023 RMK A01 T00170017  RH  100%=      5-min Rain = 0
KMC4 141312Z 28004KT 02/02 A3023 RMK A01 T00170017  RH  100%=      5-min Rain = 0
KMC4 141313Z 29003KT 02/02 A3023 RMK A01 T00170017  RH  100%=      5-min Rain = 0
KMC4 141314Z 28003KT 02/02 A3023 RMK A01 T00170017  RH  100%=      5-min Rain = 0
KMC4 141315Z 27005KT 02/02 A3023 RMK A01 T00160016  RH  100%=      5-min Rain = 0
KMC4 141316Z 28005KT 02/02 A3023 RMK A01 T00160016  RH  100%=      5-min Rain = 0
KMC4 141317Z 27004KT 02/02 A3023 RMK A01 T00160016  RH  100%=      5-min Rain = 0
KMC4 141318Z 26004KT 02/02 A3024 RMK A01 T00160016  RH  100%=      5-min Rain = 0
KMC4 141319Z 27004KT 02/02 A3024 RMK A01 T00160016  RH  100%=      5-min Rain = 0
KMC4 141320Z 26005KT 02/02 A3024 RMK A01 T00160016  RH  100%=      5-min Rain = 0
KMC4 141321Z 27005KT 02/02 A3024 RMK A01 T00160016  RH  100%=      5-min Rain = 0
KMC4 141322Z 26005KT 02/02 A3024 RMK A01 T00150015  RH  100%=      5-min Rain = 0
KMC4 141323Z 25005KT 02/02 A3024 RMK A01 T00150015  RH  100%=      5-min Rain = 0
KMC4 141324Z 26006KT 01/01 A3024 RMK A01 T00140014  RH  100%=      5-min Rain = 0
KMC4 141325Z 26006KT 01/01 A3024 RMK A01 T00130013  RH  100%=      5-min Rain = 0
KMC4 141326Z 25007KT 01/01 A3024 RMK A01 T00130013  RH  100%=      5-min Rain = 0
KMC4 141327Z 25006KT 01/01 A3024 RMK A01 T00130013  RH  100%=      5-min Rain = 0
KMC4 141328Z 25006KT 01/01 A3024 RMK A01 T00130013  RH  100%=      5-min Rain = 0
KMC4 141329Z 26006KT 01/01 A3024 RMK A01 T00130013  RH  100%=      5-min Rain = 0
KMC4 141330Z 26006KT 01/01 A3024 RMK A01 T00140013  RH  100%=      5-min Rain = 0
KMC4 141331Z 25005KT 01/01 A3024 RMK A01 T00130013  RH  100%=      5-min Rain = 0
KMC4 141332Z 25005KT 01/01 A3024 RMK A01 T00130013  RH  100%=      5-min Rain = 0
KMC4 141333Z 26006KT 01/01 A3024 RMK A01 T00130013  RH  100%=      5-min Rain = 0
KMC4 141334Z 25006KT 01/01 A3024 RMK A01 T00130013  RH  100%=      5-min Rain = 0
KMC4 141335Z 25006KT 01/01 A3024 RMK A01 T00140014  RH  100%=      5-min Rain = 0
KMC4 141336Z 26007KT 01/01 A3025 RMK A01 T00140014  RH  100%=      5-min Rain = 0
KMC4 141337Z 26006KT 01/01 A3025 RMK A01 T00140014  RH  100%=      5-min Rain = 0
KMC4 141338Z 26006KT 01/01 A3025 RMK A01 T00140014  RH  100%=      5-min Rain = 0
KMC4 141339Z 25007KT 01/01 A3025 RMK A01 T00140014  RH  100%=      5-min Rain = 0
KMC4 141340Z 26006KT 01/01 A3025 RMK A01 T00140014  RH  100%=      5-min Rain = 0
KMC4 141341Z 27006KT 01/01 A3025 RMK A01 T00140014  RH  100%=      5-min Rain = 0
KMC4 141342Z 27005KT 01/01 A3025 RMK A01 T00140014  RH  100%=      5-min Rain = 0
KMC4 141343Z 27004KT 01/01 A3025 RMK A01 T00140014  RH  100%=      5-min Rain = 0
KMC4 141344Z 27005KT 02/02 A3025 RMK A01 T00150015  RH  100%=      5-min Rain = 0
KMC4 141345Z 27004KT 02/02 A3025 RMK A01 T00150015  RH  100%=      5-min Rain = 0
KMC4 141346Z 28006KT 02/02 A3025 RMK A01 T00150015  RH  100%=      5-min Rain = 0
KMC4 141347Z 27006KT 02/02 A3025 RMK A01 T00150015  RH  100%=      5-min Rain = 0
KMC4 141348Z 28006KT 01/01 A3025 RMK A01 T00140014  RH  100%=      5-min Rain = 0
KMC4 141349Z 27006KT 01/01 A3025 RMK A01 T00140014  RH  100%=      5-min Rain = 0
KMC4 141350Z 28006KT 01/01 A3026 RMK A01 T00140014  RH  100%=      5-min Rain = 0
KMC4 141351Z 28006KT 01/01 A3026 RMK A01 T00140014  RH  100%=      5-min Rain = 0
KMC4 141352Z 28006KT 01/01 A3026 RMK A01 T00140014  RH  100%=      5-min Rain = 0
KMC4 141353Z 28006KT 01/01 A3026 RMK A01 T00130013  RH  100%=      5-min Rain = 0
KMC4 141354Z 29006KT 01/01 A3026 RMK A01 T00130013  RH  100%=      5-min Rain = 0
KMC4 141355Z 28006KT 01/01 A3026 RMK A01 T00130013  RH  100%=      5-min Rain = 0
KMC4 141356Z 29006KT 01/01 A3026 RMK A01 T00130012  RH  100%=      5-min Rain = 0
KMC4 141357Z 28006KT 01/01 A3026 RMK A01 T00120012  RH  100%=      5-min Rain = 0
KMC4 141358Z 28005KT 01/01 A3026 RMK A01 T00130013  RH  100%=      5-min Rain = 0
KMC4 141359Z 28005KT 01/01 A3026 RMK A01 T00120012  RH  100%=      5-min Rain = 0
KMC4 141400Z 28004KT 01/01 A3026 RMK A01 T00120012  RH  100%=      5-min Rain = 0
KMC4 141401Z 28005KT 01/01 A3026 RMK A01 T00130013  RH  100%=      5-min Rain = 0
KMC4 141402Z 28005KT 01/01 A3027 RMK A01 T00130013  RH  100%=      5-min Rain = 0
KMC4 141403Z 29005KT 01/01 A3027 RMK A01 T00120012  RH  100%=      5-min Rain = 0
KMC4 141404Z 30006KT 01/01 A3027 RMK A01 T00120012  RH  100%=      5-min Rain = 0
KMC4 141405Z 29006KT 01/01 A3027 RMK A01 T00120012  RH  100%=      5-min Rain = 0
KMC4 141406Z 29006KT 01/01 A3027 RMK A01 T00110011  RH  100%=      5-min Rain = 0
KMC4 141407Z 28006KT 01/01 A3027 RMK A01 T00120012  RH  100%=      5-min Rain = 0
KMC4 141408Z 28006KT 01/01 A3027 RMK A01 T00120011  RH  100%=      5-min Rain = 0
KMC4 141409Z 28005KT 01/01 A3027 RMK A01 T00120012  RH  100%=      5-min Rain = 0
KMC4 141410Z 28006KT 01/01 A3027 RMK A01 T00120012  RH  100%=      5-min Rain = 0
KMC4 141411Z 28006KT 01/01 A3027 RMK A01 T00120012  RH  100%=      5-min Rain = 0
KMC4 141412Z 28006KT 01/01 A3027 RMK A01 T00110011  RH  100%=      5-min Rain = 0
KMC4 141413Z 28007KT 01/01 A3028 RMK A01 T00110011  RH  100%=      5-min Rain = 0
KMC4 141414Z 27007KT 01/01 A3028 RMK A01 T00100009  RH  100%=      5-min Rain = 0
KMC4 141415Z 27006KT 01/01 A3028 RMK A01 T00090009  RH  100%=      5-min Rain = 0
KMC4 141416Z 26006KT 01/01 A3028 RMK A01 T00090009  RH  100%=      5-min Rain = 0
KMC4 141417Z 27006KT 01/01 A3028 RMK A01 T00090009  RH  100%=      5-min Rain = 0
KMC4 141418Z 28007KT 01/01 A3028 RMK A01 T00070007  RH  100%=      5-min Rain = 0
KMC4 141419Z 28007KT 01/01 A3028 RMK A01 T00070006  RH  100%=      5-min Rain = 0
KMC4 141420Z 28007KT 01/01 A3028 RMK A01 T00060006  RH  100%=      5-min Rain = 0
KMC4 141421Z 28006KT 01/01 A3028 RMK A01 T00050005  RH  100%=      5-min Rain = 0
KMC4 141422Z 29005KT 01/01 A3029 RMK A01 T00050005  RH  100%=      5-min Rain = 0
KMC4 141423Z 29005KT 01/01 A3029 RMK A01 T00050005  RH  100%=      5-min Rain = 0
KMC4 141424Z 28006KT 01/01 A3029 RMK A01 T00050005  RH  100%=      5-min Rain = 0
KMC4 141425Z 29006KT 01/01 A3029 RMK A01 T00050005  RH  100%=      5-min Rain = 0
KMC4 141426Z 28007KT 01/01 A3029 RMK A01 T00050005  RH  100%=      5-min Rain = 0
KMC4 141427Z 28006KT 00/00 A3029 RMK A01 T00040004  RH  100%=      5-min Rain = 0
KMC4 141428Z 29006KT 00/00 A3029 RMK A01 T00040004  RH  100%=      5-min Rain = 0
KMC4 141429Z 28007KT 01/01 A3029 RMK A01 T00050005  RH  100%=      5-min Rain = 0
KMC4 141430Z 28007KT 01/01 A3029 RMK A01 T00050005  RH  100%=      5-min Rain = 0
KMC4 141431Z 27007KT 01/01 A303 RMK A01 T00050005  RH  100%=      5-min Rain = 0
KMC4 141432Z 26008KT 00/00 A3029 RMK A01 T00040004  RH  100%=      5-min Rain = 0
KMC4 141433Z 27008KT 00/00 A3029 RMK A01 T00030003  RH  100%=      5-min Rain = 0
KMC4 141434Z 28007KT 00/00 A303 RMK A01 T00020002  RH  100%=      5-min Rain = 0
KMC4 141435Z 29007KT 00/00 A303 RMK A01 T00030003  RH  100%=      5-min Rain = 0
KMC4 141436Z 30006KT 00/00 A303 RMK A01 T00030003  RH  100%=      5-min Rain = 0
KMC4 141437Z 30007KT 00/00 A303 RMK A01 T00020002  RH  100%=      5-min Rain = 0
KMC4 141438Z 29006KT 00/00 A303 RMK A01 T00020002  RH  100%=      5-min Rain = 0
KMC4 141439Z 28007KT 00/00 A303 RMK A01 T00020002  RH  100%=      5-min Rain = 0
KMC4 141440Z 28008KT 00/00 A303 RMK A01 T00020002  RH  100%=      5-min Rain = 0
KMC4 141441Z 28008KT 00/00 A303 RMK A01 T00020002  RH  100%=      5-min Rain = 0
KMC4 141442Z 28006KT 00/00 A303 RMK A01 T00020002  RH  100%=      5-min Rain = 0
KMC4 141443Z 28005KT 00/00 A303 RMK A01 T00020002  RH  100%=      5-min Rain = 0
KMC4 141444Z 28005KT 00/00 A3031 RMK A01 T00030003  RH  100%=      5-min Rain = 0
KMC4 141445Z 27006KT 00/00 A3031 RMK A01 T00030003  RH  100%=      5-min Rain = 0
KMC4 141446Z 27007KT 00/00 A3031 RMK A01 T00030003  RH  100%=      5-min Rain = 0
KMC4 141447Z 28006KT 00/00 A3031 RMK A01 T00040004  RH  100%=      5-min Rain = 0
KMC4 141448Z 28007KT 00/00 A3031 RMK A01 T00040004  RH  100%=      5-min Rain = 0
KMC4 141449Z 28007KT 00/00 A3031 RMK A01 T00030003  RH  100%=      5-min Rain = 0
KMC4 141450Z 28006KT 00/00 A3031 RMK A01 T00030002  RH  100%=      5-min Rain = 0
KMC4 141451Z 28006KT 00/00 A3031 RMK A01 T00020002  RH  100%=      5-min Rain = 0
KMC4 141452Z 30005KT 00/00 A3031 RMK A01 T00040004  RH  100%=      5-min Rain = 0
KMC4 141453Z 29006KT 01/01 A3031 RMK A01 T00050005  RH  100%=      5-min Rain = 0
KMC4 141454Z 29005KT 00/00 A3031 RMK A01 T00040004  RH  100%=      5-min Rain = 0
KMC4 141455Z 29005KT 00/00 A3031 RMK A01 T00040004  RH  100%=      5-min Rain = 0
KMC4 141456Z 30005KT 01/01 A3031 RMK A01 T00050005  RH  100%=      5-min Rain = 0
KMC4 141457Z 30005KT 01/01 A3031 RMK A01 T00050005  RH  100%=      5-min Rain = 0
KMC4 141458Z 30005KT 01/01 A3031 RMK A01 T00050005  RH  100%=      5-min Rain = 0
KMC4 141459Z 30006KT 01/01 A3032 RMK A01 T00060006  RH  100%=      5-min Rain = 0
KMC4 141500Z 29006KT 01/01 A3032 RMK A01 T00060006  RH  100%=      5-min Rain = 0
KMC4 141501Z 28005KT 01/01 A3032 RMK A01 T00060006  RH  100%=      5-min Rain = 0
KMC4 141502Z 29006KT 01/01 A3032 RMK A01 T00060006  RH  100%=      5-min Rain = 0
KMC4 141503Z 30008KT 01/01 A3032 RMK A01 T00070007  RH  100%=      5-min Rain = 0
KMC4 141504Z 30006KT 01/01 A3032 RMK A01 T00070007  RH  100%=      5-min Rain = 0
KMC4 141505Z 29006KT 01/01 A3032 RMK A01 T00070007  RH  100%=      5-min Rain = 0
KMC4 141506Z 31005KT 01/01 A3032 RMK A01 T00080008  RH  100%=      5-min Rain = 0
KMC4 141507Z 30005KT 01/01 A3032 RMK A01 T00090009  RH  100%=      5-min Rain = 0
KMC4 141508Z 28005KT 01/01 A3032 RMK A01 T00090009  RH  100%=      5-min Rain = 0
KMC4 141509Z 29006KT 01/01 A3032 RMK A01 T00090009  RH  100%=      5-min Rain = 0
KMC4 141510Z 29004KT 01/01 A3033 RMK A01 T00090009  RH  100%=      5-min Rain = 0
KMC4 141511Z 29005KT 01/01 A3033 RMK A01 T00100010  RH  100%=      5-min Rain = 0
KMC4 141512Z 29006KT 01/01 A3033 RMK A01 T00100010  RH  100%=      5-min Rain = 0
KMC4 141513Z 30005KT 01/01 A3033 RMK A01 T00110011  RH  100%=      5-min Rain = 0
KMC4 141514Z 30006KT 01/01 A3033 RMK A01 T00120012  RH  100%=      5-min Rain = 0
KMC4 141515Z 30005KT 01/01 A3033 RMK A01 T00120012  RH  100%=      5-min Rain = 0
KMC4 141516Z 29006KT 01/01 A3033 RMK A01 T00120012  RH  100%=      5-min Rain = 0
KMC4 141517Z 29006KT 01/01 A3033 RMK A01 T00120012  RH  100%=      5-min Rain = 0
KMC4 141518Z 29005KT 01/01 A3033 RMK A01 T00120012  RH  100%=      5-min Rain = 0
KMC4 141519Z 30005KT 01/01 A3033 RMK A01 T00130013  RH  100%=      5-min Rain = 0
KMC4 141520Z 29005KT 01/01 A3033 RMK A01 T00140014  RH  100%=      5-min Rain = 0
KMC4 141521Z 29006KT 01/01 A3033 RMK A01 T00140014  RH  100%=      5-min Rain = 0
KMC4 141522Z 29007KT 02/02 A3033 RMK A01 T00160016  RH  100%=      5-min Rain = 0
KMC4 141523Z 29007KT 02/02 A3033 RMK A01 T00160016  RH  100%=      5-min Rain = 0
KMC4 141524Z 29007KT 02/02 A3033 RMK A01 T00150015  RH  100%=      5-min Rain = 0
KMC4 141525Z 30007KT 02/02 A3033 RMK A01 T00170017  RH  100%=      5-min Rain = 0
KMC4 141526Z 29007KT 02/02 A3033 RMK A01 T00170017  RH  100%=      5-min Rain = 0
KMC4 141527Z 30006KT 02/02 A3033 RMK A01 T00190019  RH  100%=      5-min Rain = 0
KMC4 141528Z 30006KT 02/02 A3034 RMK A01 T00190019  RH  100%=      5-min Rain = 0
KMC4 141529Z 29006KT 02/02 A3034 RMK A01 T00210021  RH  100%=      5-min Rain = 0
KMC4 141530Z 29006KT 02/02 A3034 RMK A01 T00220022  RH  100%=      5-min Rain = 0
KMC4 141531Z 28004KT 02/02 A3034 RMK A01 T00220022  RH  100%=      5-min Rain = 0
KMC4 141532Z 29005KT 02/02 A3034 RMK A01 T00230023  RH  100%=      5-min Rain = 0
KMC4 141533Z 30005KT 02/02 A3034 RMK A01 T00240024  RH  100%=      5-min Rain = 0
KMC4 141534Z 29005KT 03/03 A3034 RMK A01 T00250025  RH  100%=      5-min Rain = 0
KMC4 141535Z 30006KT 03/03 A3034 RMK A01 T00260026  RH  100%=      5-min Rain = 0
KMC4 141536Z 28005KT 03/03 A3034 RMK A01 T00270027  RH  100%=      5-min Rain = 0
KMC4 141537Z 28005KT 03/03 A3034 RMK A01 T00280028  RH  100%=      5-min Rain = 0
KMC4 141538Z 29004KT 03/03 A3034 RMK A01 T00300030  RH  100%=      5-min Rain = 0
KMC4 141539Z 29004KT 03/03 A3034 RMK A01 T00310031  RH  100%=      5-min Rain = 0
KMC4 141540Z 28004KT 03/03 A3034 RMK A01 T00320032  RH  100%=      5-min Rain = 0
KMC4 141541Z 28005KT 03/03 A3034 RMK A01 T00320032  RH  100%=      5-min Rain = 0
KMC4 141542Z 27005KT 03/03 A3034 RMK A01 T00310031  RH  100%=      5-min Rain = 0
KMC4 141543Z 28005KT 03/03 A3034 RMK A01 T00320032  RH  100%=      5-min Rain = 0
KMC4 141544Z 27004KT 03/03 A3034 RMK A01 T00310031  RH  100%=      5-min Rain = 0
KMC4 141545Z 27005KT 03/03 A3034 RMK A01 T00320032  RH  100%=      5-min Rain = 0
KMC4 141546Z 27005KT 03/03 A3035 RMK A01 T00330033  RH  100%=      5-min Rain = 0
KMC4 141547Z 27004KT 03/03 A3035 RMK A01 T00330033  RH  100%=      5-min Rain = 0
KMC4 141548Z 27003KT 03/03 A3035 RMK A01 T00340033  RH  100%=      5-min Rain = 0
KMC4 141549Z 27004KT 04/03 A3035 RMK A01 T00350034  RH  100%=      5-min Rain = 0
KMC4 141550Z 27004KT 04/04 A3035 RMK A01 T00360036  RH  100%=      5-min Rain = 0
KMC4 141551Z 27004KT 04/04 A3035 RMK A01 T00370036  RH  100%=      5-min Rain = 0
KMC4 141552Z 26003KT 04/04 A3035 RMK A01 T00360035  RH  099%=      5-min Rain = 0
KMC4 141553Z 26003KT 04/04 A3035 RMK A01 T00370036  RH  099%=      5-min Rain = 0
KMC4 141554Z 27003KT 04/04 A3035 RMK A01 T00380038  RH  099%=      5-min Rain = 0
KMC4 141555Z 26002KT 04/04 A3035 RMK A01 T00380037  RH  099%=      5-min Rain = 0
KMC4 141556Z 25002KT 04/04 A3035 RMK A01 T00390038  RH  099%=      5-min Rain = 0
KMC4 141557Z 32002KT 04/04 A3035 RMK A01 T00410040  RH  099%=      5-min Rain = 0
KMC4 141558Z 31001KT 04/04 A3035 RMK A01 T00410040  RH  099%=      5-min Rain = 0
KMC4 141559Z 33001KT 04/04 A3035 RMK A01 T00410040  RH  099%=      5-min Rain = 0
KMC4 141600Z 24000KT 04/04 A3035 RMK A01 T00410039  RH  099%=      5-min Rain = 0
KMC4 141601Z 25001KT 04/04 A3035 RMK A01 T00420040  RH  099%=      5-min Rain = 0
KMC4 141602Z 00000KT 04/04 A3035 RMK A01 T00420041  RH  099%=      5-min Rain = 0
KMC4 141603Z 10000KT 05/04 A3035 RMK A01 T00450043  RH  099%=      5-min Rain = 0
KMC4 141604Z 05000KT 05/05 A3035 RMK A01 T00470046  RH  099%=      5-min Rain = 0
KMC4 141605Z 00000KT 05/05 A3035 RMK A01 T00490047  RH  099%=      5-min Rain = 0
KMC4 141606Z 20000KT 05/05 A3035 RMK A01 T00500047  RH  098%=      5-min Rain = 0
KMC4 141607Z 22000KT 05/05 A3035 RMK A01 T00500047  RH  098%=      5-min Rain = 0
KMC4 141608Z 18000KT 05/05 A3035 RMK A01 T00510048  RH  098%=      5-min Rain = 0
KMC4 141609Z 14001KT 05/05 A3035 RMK A01 T00530050  RH  098%=      5-min Rain = 0
KMC4 141610Z 21001KT 05/05 A3035 RMK A01 T00530049  RH  097%=      5-min Rain = 0
KMC4 141611Z 22000KT 05/05 A3035 RMK A01 T00530048  RH  096%=      5-min Rain = 0
KMC4 141612Z 00000KT 05/05 A3036 RMK A01 T00540048  RH  096%=      5-min Rain = 0
KMC4 141613Z 00000KT 05/05 A3036 RMK A01 T00540049  RH  096%=      5-min Rain = 0
KMC4 141614Z 25001KT 06/05 A3036 RMK A01 T00550049  RH  096%=      5-min Rain = 0
KMC4 141615Z 23001KT 05/05 A3036 RMK A01 T00540046  RH  095%=      5-min Rain = 0
KMC4 141616Z 24000KT 05/04 A3036 RMK A01 T00530044  RH  094%=      5-min Rain = 0
KMC4 141617Z 07002KT 05/05 A3036 RMK A01 T00540046  RH  095%=      5-min Rain = 0
KMC4 141618Z 07002KT 05/05 A3036 RMK A01 T00540045  RH  094%=      5-min Rain = 0
KMC4 141619Z 09001KT 06/04 A3036 RMK A01 T00550043  RH  092%=      5-min Rain = 0
KMC4 141620Z 11001KT 06/04 A3036 RMK A01 T00560042  RH  091%=      5-min Rain = 0
KMC4 141621Z 07001KT 06/04 A3036 RMK A01 T00570042  RH  090%=      5-min Rain = 0
KMC4 141622Z 09001KT 06/04 A3036 RMK A01 T00590041  RH  089%=      5-min Rain = 0
KMC4 141623Z 06002KT 06/04 A3036 RMK A01 T00590040  RH  088%=      5-min Rain = 0
KMC4 141624Z 09000KT 06/04 A3036 RMK A01 T00590037  RH  086%=      5-min Rain = 0
KMC4 141625Z 32000KT 06/04 A3036 RMK A01 T00590037  RH  086%=      5-min Rain = 0
KMC4 141626Z 36001KT 06/04 A3036 RMK A01 T00590039  RH  087%=      5-min Rain = 0
KMC4 141627Z 08001KT 06/04 A3036 RMK A01 T00610042  RH  088%=      5-min Rain = 0
KMC4 141628Z 06002KT 06/04 A3036 RMK A01 T00630044  RH  088%=      5-min Rain = 0
KMC4 141629Z 01000KT 07/04 A3036 RMK A01 T00650042  RH  085%=      5-min Rain = 0
KMC4 141630Z 30000KT 07/04 A3036 RMK A01 T00660042  RH  085%=      5-min Rain = 0
KMC4 141631Z 30000KT 07/04 A3036 RMK A01 T00660042  RH  085%=      5-min Rain = 0
KMC4 141632Z 28000KT 07/04 A3036 RMK A01 T00650042  RH  085%=      5-min Rain = 0
KMC4 141633Z 28000KT 07/04 A3036 RMK A01 T00650043  RH  086%=      5-min Rain = 0
KMC4 141634Z 00000KT 07/04 A3036 RMK A01 T00660044  RH  086%=      5-min Rain = 0
KMC4 141635Z 25000KT 07/05 A3036 RMK A01 T00680046  RH  086%=      5-min Rain = 0
KMC4 141636Z 17000KT 07/05 A3036 RMK A01 T00700047  RH  086%=      5-min Rain = 0
KMC4 141637Z 12001KT 07/05 A3036 RMK A01 T00720046  RH  084%=      5-min Rain = 0
KMC4 141638Z 04003KT 07/04 A3036 RMK A01 T00730043  RH  081%=      5-min Rain = 0
KMC4 141639Z 04007KT 07/04 A3036 RMK A01 T00740038  RH  078%=      5-min Rain = 0
KMC4 141640Z 04010KT 08/03 A3036 RMK A01 T00780031  RH  072%=      5-min Rain = 0
KMC4 141641Z 06010KT 08/02 A3036 RMK A01 T00830019  RH  064%=      5-min Rain = 0
KMC4 141642Z 06009KT 09/01 A3036 RMK A01 T00870014  RH  060%=      5-min Rain = 0
KMC4 141643Z 05009KT 09/01 A3036 RMK A01 T00900011  RH  058%=      5-min Rain = 0
KMC4 141644Z 06013KT 09/01 A3036 RMK A01 T00900010  RH  057%=      5-min Rain = 0
KMC4 141645Z 05009KT 09/01 A3036 RMK A01 T00920009  RH  056%=      5-min Rain = 0
KMC4 141646Z 06008KT 09/01 A3036 RMK A01 T00930006  RH  055%=      5-min Rain = 0
KMC4 141647Z 05009KT 09/01 A3036 RMK A01 T00940008  RH  055%=      5-min Rain = 0
KMC4 141648Z 03009KT 10/01 A3036 RMK A01 T00960011  RH  055%=      5-min Rain = 0
KMC4 141649Z 05012KT 10/01 A3036 RMK A01 T00980008  RH  053%=      5-min Rain = 0
KMC4 141650Z 05014KT 10/00 A3036 RMK A01 T00970002  RH  052%=      5-min Rain = 0
KMC4 141651Z 04011KT 10/00 A3036 RMK A01 T00960003  RH  052%=      5-min Rain = 0
KMC4 141652Z 05012KT 10/00 A3036 RMK A01 T00960003  RH  052%=      5-min Rain = 0
KMC4 141653Z 05013KT 10/00 A3036 RMK A01 T00960001  RH  052%=      5-min Rain = 0
KMC4 141654Z 04007KT 10/00 A3036 RMK A01 T00950002  RH  052%=      5-min Rain = 0
KMC4 141655Z 03010KT 10/01 A3036 RMK A01 T00970008  RH  054%=      5-min Rain = 0
KMC4 141656Z 03014KT 10/00 A3036 RMK A01 T01000004  RH  051%=      5-min Rain = 0
KMC4 141657Z 02010KT 10/00 A3036 RMK A01 T00990002  RH  051%=      5-min Rain = 0
KMC4 141658Z 02011G17KT 10/00 A3036 RMK A01 T00990003  RH  051%=      5-min Rain = 0
KMC4 141659Z 04010KT 10/00 A3036 RMK A01 T01000003  RH  051%=      5-min Rain = 0
KMC4 141700Z 06009KT 10/00 A3036 RMK A01 T01000002  RH  051%=      5-min Rain = 0
KMC4 141701Z 04010KT 10/00 A3036 RMK A01 T01000004  RH  051%=      5-min Rain = 0
KMC4 141702Z 04008KT 10/00 A3036 RMK A01 T01010004  RH  051%=      5-min Rain = 0
KMC4 141703Z 04013KT 10/00 A3036 RMK A01 T01020001  RH  050%=      5-min Rain = 0
KMC4 141704Z 04012KT 10/00 A3036 RMK A01 T01020000  RH  049%=      5-min Rain = 0
KMC4 141705Z 05016KT 10/00 A3036 RMK A01 T01020000  RH  049%=      5-min Rain = 0
KMC4 141706Z 04016KT 10/M00 A3036 RMK A01 T01011003  RH  048%=      5-min Rain = 0
KMC4 141707Z 04013KT 10/M00 A3036 RMK A01 T01001002  RH  049%=      5-min Rain = 0
KMC4 141708Z 04011KT 10/M00 A3036 RMK A01 T00991001  RH  050%=      5-min Rain = 0
KMC4 141709Z 05010KT 10/M00 A3036 RMK A01 T01001001  RH  050%=      5-min Rain = 0
KMC4 141710Z 05012KT 10/00 A3036 RMK A01 T010000-0  RH  050%=      5-min Rain = 0
KMC4 141711Z 05012KT 10/M00 A3036 RMK A01 T01001001  RH  049%=      5-min Rain = 0
KMC4 141712Z 04010KT 10/00 A3036 RMK A01 T010100-0  RH  049%=      5-min Rain = 0
KMC4 141713Z 02012KT 10/00 A3036 RMK A01 T01020000  RH  049%=      5-min Rain = 0
KMC4 141714Z 03010KT 10/M00 A3036 RMK A01 T01021001  RH  049%=      5-min Rain = 0
KMC4 141715Z 04011KT 10/00 A3036 RMK A01 T01040002  RH  049%=      5-min Rain = 0
KMC4 141716Z 04011KT 10/00 A3036 RMK A01 T01040000  RH  049%=      5-min Rain = 0
KMC4 141717Z 03011KT 10/00 A3036 RMK A01 T01030001  RH  049%=      5-min Rain = 0
KMC4 141718Z 04011KT 10/00 A3036 RMK A01 T01030002  RH  049%=      5-min Rain = 0
KMC4 141719Z 05008KT 10/M00 A3036 RMK A01 T01021001  RH  049%=      5-min Rain = 0
KMC4 141720Z 04008KT 10/00 A3036 RMK A01 T010100-0  RH  049%=      5-min Rain = 0
KMC4 141721Z 02014KT 10/00 A3036 RMK A01 T01040004  RH  050%=      5-min Rain = 0
KMC4 141722Z 03012KT 11/00 A3036 RMK A01 T01060001  RH  048%=      5-min Rain = 0
KMC4 141723Z 02013KT 11/M00 A3036 RMK A01 T01071001  RH  047%=      5-min Rain = 0
KMC4 141724Z 03014KT 11/M00 A3036 RMK A01 T01061002  RH  047%=      5-min Rain = 0
KMC4 141725Z 05012KT 11/00 A3036 RMK A01 T010600-0  RH  048%=      5-min Rain = 0
KMC4 141726Z 05010KT 11/M00 A3036 RMK A01 T01071001  RH  047%=      5-min Rain = 0
KMC4 141727Z 05010KT 11/M00 A3036 RMK A01 T01081001  RH  047%=      5-min Rain = 0
KMC4 141728Z 04013KT 11/M00 A3036 RMK A01 T01091003  RH  046%=      5-min Rain = 0
KMC4 141729Z 05013KT 11/M01 A3036 RMK A01 T01071006  RH  045%=      5-min Rain = 0
KMC4 141730Z 05009KT 11/M00 A3036 RMK A01 T01071003  RH  046%=      5-min Rain = 0
KMC4 141731Z 05014KT 11/M00 A3036 RMK A01 T01081004  RH  046%=      5-min Rain = 0
KMC4 141732Z 05010KT 11/M00 A3036 RMK A01 T01071004  RH  046%=      5-min Rain = 0
KMC4 141733Z 06010KT 11/M01 A3036 RMK A01 T01081006  RH  045%=      5-min Rain = 0
KMC4 141734Z 05012KT 11/M01 A3036 RMK A01 T01071008  RH  045%=      5-min Rain = 0
KMC4 141735Z 03012KT 11/M00 A3036 RMK A01 T01081004  RH  046%=      5-min Rain = 0
KMC4 141736Z 03012KT 11/M00 A3036 RMK A01 T01091004  RH  045%=      5-min Rain = 0
KMC4 141737Z 04016KT 11/M01 A3036 RMK A01 T01101005  RH  045%=      5-min Rain = 0
KMC4 141738Z 04013KT 11/M01 A3036 RMK A01 T01091007  RH  045%=      5-min Rain = 0
KMC4 141739Z 06011KT 11/M01 A3036 RMK A01 T01081005  RH  045%=      5-min Rain = 0
KMC4 141740Z 04012KT 11/M01 A3036 RMK A01 T01091006  RH  045%=      5-min Rain = 0
KMC4 141741Z 03014KT 11/M01 A3036 RMK A01 T01081008  RH  045%=      5-min Rain = 0
KMC4 141742Z 03013KT 11/M01 A3036 RMK A01 T01071007  RH  045%=      5-min Rain = 0
KMC4 141743Z 03013KT 11/M01 A3036 RMK A01 T01071009  RH  045%=      5-min Rain = 0
KMC4 141744Z 03013KT 11/M01 A3036 RMK A01 T01071008  RH  045%=      5-min Rain = 0
KMC4 141745Z 04012KT 11/M00 A3036 RMK A01 T01091004  RH  045%=      5-min Rain = 0
KMC4 141746Z 03012KT 11/M01 A3036 RMK A01 T01101006  RH  044%=      5-min Rain = 0
KMC4 141747Z 03012KT 11/M01 A3036 RMK A01 T01091008  RH  044%=      5-min Rain = 0
KMC4 141748Z 04009KT 11/M01 A3036 RMK A01 T01081009  RH  044%=      5-min Rain = 0
KMC4 141749Z 04008KT 11/M01 A3036 RMK A01 T01081007  RH  045%=      5-min Rain = 0
KMC4 141750Z 02010G15KT 11/M01 A3036 RMK A01 T01091006  RH  045%=      5-min Rain = 0
KMC4 141751Z 04009G14KT 11/M00 A3036 RMK A01 T01101003  RH  045%=      5-min Rain = 0
KMC4 141752Z 03013KT 11/M01 A3036 RMK A01 T01111006  RH  044%=      5-min Rain = 0
KMC4 141753Z 02013KT 11/M01 A3036 RMK A01 T01111008  RH  044%=      5-min Rain = 0
KMC4 141754Z 03010KT 11/M01 A3036 RMK A01 T01101009  RH  044%=      5-min Rain = 0
KMC4 141755Z 04012KT 11/M01 A3036 RMK A01 T01101008  RH  044%=      5-min Rain = 0
KMC4 141756Z 02011KT 11/M01 A3036 RMK A01 T01101008  RH  044%=      5-min Rain = 0
KMC4 141757Z 03010KT 11/M01 A3036 RMK A01 T01101011  RH  043%=      5-min Rain = 0
KMC4 141758Z 02009KT 11/M01 A3036 RMK A01 T01101006  RH  044%=      5-min Rain = 0
KMC4 141759Z 03008KT 11/M00 A3036 RMK A01 T01121003  RH  045%=      5-min Rain = 0
KMC4 141800Z 02009KT 12/M00 A3036 RMK A01 T01151003  RH  044%=      5-min Rain = 0
KMC4 141801Z 04011KT 12/M01 A3036 RMK A01 T01161007  RH  043%=      5-min Rain = 0
KMC4 141802Z 04010KT 11/M01 A3036 RMK A01 T01141009  RH  043%=      5-min Rain = 0
KMC4 141803Z 04012KT 11/M01 A3035 RMK A01 T01131009  RH  043%=      5-min Rain = 0
KMC4 141804Z 03012G17KT 11/M01 A3035 RMK A01 T01131010  RH  042%=      5-min Rain = 0
KMC4 141805Z 03012KT 11/M01 A3036 RMK A01 T01141008  RH  043%=      5-min Rain = 0
KMC4 141806Z 03013KT 11/M01 A3036 RMK A01 T01141009  RH  043%=      5-min Rain = 0
KMC4 141807Z 04012KT 11/M01 A3036 RMK A01 T01131009  RH  043%=      5-min Rain = 0
KMC4 141808Z 04013KT 11/M01 A3036 RMK A01 T01121010  RH  043%=      5-min Rain = 0
KMC4 141809Z 05013KT 11/M01 A3035 RMK A01 T01131009  RH  043%=      5-min Rain = 0
KMC4 141810Z 05011KT 11/M01 A3035 RMK A01 T01141010  RH  042%=      5-min Rain = 0
KMC4 141811Z 04010KT 11/M01 A3035 RMK A01 T01141012  RH  041%=      5-min Rain = 0
KMC4 141812Z 04011KT 11/M01 A3035 RMK A01 T01141011  RH  042%=      5-min Rain = 0
KMC4 141813Z 04012KT 12/M01 A3035 RMK A01 T01151011  RH  042%=      5-min Rain = 0
KMC4 141814Z 03012KT 11/M01 A3035 RMK A01 T01141012  RH  041%=      5-min Rain = 0
KMC4 141815Z 03012G17KT 11/M01 A3035 RMK A01 T01141011  RH  042%=      5-min Rain = 0
KMC4 141816Z 03013KT 12/M01 A3035 RMK A01 T01161012  RH  041%=      5-min Rain = 0
KMC4 141817Z 03009KT 12/M01 A3035 RMK A01 T01171013  RH  041%=      5-min Rain = 0
KMC4 141818Z 04010KT 12/M01 A3035 RMK A01 T01161012  RH  041%=      5-min Rain = 0
KMC4 141819Z 04010KT 12/M01 A3035 RMK A01 T01171011  RH  041%=      5-min Rain = 0
KMC4 141820Z 04011KT 12/M01 A3035 RMK A01 T01171010  RH  041%=      5-min Rain = 0
KMC4 141821Z 04010KT 12/M01 A3035 RMK A01 T01181011  RH  041%=      5-min Rain = 0
KMC4 141822Z 05007KT 12/M01 A3035 RMK A01 T01201006  RH  042%=      5-min Rain = 0
KMC4 141823Z 04009KT 12/M00 A3035 RMK A01 T01241003  RH  041%=      5-min Rain = 0
KMC4 141824Z 03011KT 13/M01 A3035 RMK A01 T01261006  RH  040%=      5-min Rain = 0
KMC4 141825Z 03010KT 13/M01 A3035 RMK A01 T01251013  RH  038%=      5-min Rain = 0
KMC4 141826Z 02006KT 12/M01 A3035 RMK A01 T01231012  RH  039%=      5-min Rain = 0
KMC4 141827Z 02009KT 12/M01 A3035 RMK A01 T01231014  RH  039%=      5-min Rain = 0
KMC4 141828Z 05013KT 12/M01 A3035 RMK A01 T01231013  RH  039%=      5-min Rain = 0
KMC4 141829Z 04010KT 12/M02 A3035 RMK A01 T01221017  RH  038%=      5-min Rain = 0
KMC4 141830Z 03007KT 12/M02 A3035 RMK A01 T01201018  RH  038%=      5-min Rain = 0
KMC4 141831Z 04010KT 12/M02 A3035 RMK A01 T01211015  RH  039%=      5-min Rain = 0
KMC4 141832Z 05013KT 12/M02 A3035 RMK A01 T01221017  RH  038%=      5-min Rain = 0
KMC4 141833Z 04011KT 12/M02 A3035 RMK A01 T01221017  RH  038%=      5-min Rain = 0
KMC4 141834Z 04011KT 12/M02 A3035 RMK A01 T01231018  RH  037%=      5-min Rain = 0
KMC4 141835Z 04008KT 12/M02 A3035 RMK A01 T01231021  RH  037%=      5-min Rain = 0
KMC4 141836Z 03007KT 12/M02 A3035 RMK A01 T01231018  RH  038%=      5-min Rain = 0
KMC4 141837Z 02008G14KT 12/M01 A3035 RMK A01 T01241013  RH  038%=      5-min Rain = 0
KMC4 141838Z 01011KT 13/M02 A3035 RMK A01 T01261016  RH  037%=      5-min Rain = 0
KMC4 141839Z 01012KT 12/M02 A3035 RMK A01 T01241018  RH  037%=      5-min Rain = 0
KMC4 141840Z 01010KT 12/M02 A3035 RMK A01 T01231019  RH  037%=      5-min Rain = 0
KMC4 141841Z 00010KT 12/M02 A3035 RMK A01 T01231019  RH  037%=      5-min Rain = 0
KMC4 141842Z 01006KT 12/M02 A3035 RMK A01 T01231019  RH  037%=      5-min Rain = 0
KMC4 141843Z 01005KT 12/M02 A3034 RMK A01 T01241016  RH  038%=      5-min Rain = 0
KMC4 141844Z 03009KT 13/M01 A3034 RMK A01 T01261012  RH  038%=      5-min Rain = 0
KMC4 141845Z 03013KT 13/M02 A3034 RMK A01 T01281016  RH  037%=      5-min Rain = 0
KMC4 141846Z 02009G14KT 13/M02 A3034 RMK A01 T01261018  RH  037%=      5-min Rain = 0
KMC4 141847Z 02012KT 13/M02 A3034 RMK A01 T01251018  RH  037%=      5-min Rain = 0
KMC4 141848Z 02012KT 13/M02 A3034 RMK A01 T01251019  RH  037%=      5-min Rain = 0
KMC4 141849Z 03011KT 13/M02 A3034 RMK A01 T01251017  RH  037%=      5-min Rain = 0
KMC4 141850Z 03013KT 13/M02 A3034 RMK A01 T01261019  RH  036%=      5-min Rain = 0
KMC4 141851Z 03013KT 13/M02 A3034 RMK A01 T01251020  RH  036%=      5-min Rain = 0
KMC4 141852Z 03011KT 12/M02 A3034 RMK A01 T01241022  RH  036%=      5-min Rain = 0
KMC4 141853Z 02007KT 12/M02 A3034 RMK A01 T01241021  RH  037%=      5-min Rain = 0
KMC4 141854Z 04009KT 12/M02 A3034 RMK A01 T01241019  RH  037%=      5-min Rain = 0
KMC4 141855Z 04009KT 13/M02 A3034 RMK A01 T01251022  RH  036%=      5-min Rain = 0
KMC4 141856Z 05007KT 13/M02 A3034 RMK A01 T01251019  RH  037%=      5-min Rain = 0
KMC4 141857Z 03011KT 13/M02 A3034 RMK A01 T01271016  RH  037%=      5-min Rain = 0
KMC4 141858Z 04010KT 13/M02 A3034 RMK A01 T01271019  RH  036%=      5-min Rain = 0
KMC4 141859Z 04011KT 13/M02 A3034 RMK A01 T01261020  RH  036%=      5-min Rain = 0
KMC4 141900Z 04008KT 13/M02 A3034 RMK A01 T01251022  RH  036%=      5-min Rain = 0
KMC4 141901Z 05009KT 13/M02 A3034 RMK A01 T01251020  RH  036%=      5-min Rain = 0
KMC4 141902Z 05008KT 13/M02 A3034 RMK A01 T01271018  RH  037%=      5-min Rain = 0
KMC4 141903Z 04009KT 13/M02 A3034 RMK A01 T01281017  RH  036%=      5-min Rain = 0
KMC4 141904Z 03007KT 13/M02 A3034 RMK A01 T01301017  RH  036%=      5-min Rain = 0
KMC4 141905Z 01009KT 13/M02 A3034 RMK A01 T01311018  RH  036%=      5-min Rain = 0
KMC4 141906Z 02007KT 13/M02 A3034 RMK A01 T01321018  RH  035%=      5-min Rain = 0
KMC4 141907Z 04007KT 13/M02 A3034 RMK A01 T01321019  RH  035%=      5-min Rain = 0
KMC4 141908Z 04008KT 13/M02 A3034 RMK A01 T01331016  RH  036%=      5-min Rain = 0
KMC4 141909Z 02011KT 13/M02 A3034 RMK A01 T01321022  RH  034%=      5-min Rain = 0
KMC4 141910Z 01010KT 13/M03 A3034 RMK A01 T01301025  RH  034%=      5-min Rain = 0
KMC4 141911Z 01011KT 13/M02 A3034 RMK A01 T01301023  RH  035%=      5-min Rain = 0
KMC4 141912Z 01012KT 13/M02 A3034 RMK A01 T01311023  RH  034%=      5-min Rain = 0
KMC4 141913Z 02009KT 13/M03 A3034 RMK A01 T01311025  RH  034%=      5-min Rain = 0
KMC4 141914Z 03009KT 13/M02 A3034 RMK A01 T01301023  RH  034%=      5-min Rain = 0
KMC4 141915Z 01009KT 13/M02 A3034 RMK A01 T01311022  RH  035%=      5-min Rain = 0
KMC4 141916Z 03009G14KT 13/M02 A3034 RMK A01 T01321023  RH  034%=      5-min Rain = 0
KMC4 141917Z 03011KT 13/M02 A3034 RMK A01 T01321022  RH  034%=      5-min Rain = 0
KMC4 141918Z 03008KT 13/M02 A3034 RMK A01 T01321022  RH  034%=      5-min Rain = 0
KMC4 141919Z 02008KT 13/M02 A3034 RMK A01 T01331022  RH  034%=      5-min Rain = 0
KMC4 141920Z 05009KT 13/M02 A3034 RMK A01 T01341020  RH  034%=      5-min Rain = 0
KMC4 141921Z 04011KT 14/M02 A3034 RMK A01 T01351024  RH  033%=      5-min Rain = 0
KMC4 141922Z 03012KT 14/M03 A3034 RMK A01 T01351026  RH  033%=      5-min Rain = 0
KMC4 141923Z 04010KT 13/M03 A3034 RMK A01 T01331026  RH  033%=      5-min Rain = 0
KMC4 141924Z 04010KT 13/M03 A3034 RMK A01 T01321028  RH  033%=      5-min Rain = 0
KMC4 141925Z 03011KT 13/M02 A3034 RMK A01 T01321024  RH  034%=      5-min Rain = 0
KMC4 141926Z 04011KT 13/M03 A3034 RMK A01 T01331026  RH  033%=      5-min Rain = 0
KMC4 141927Z 03011KT 13/M03 A3033 RMK A01 T01331025  RH  033%=      5-min Rain = 0
KMC4 141928Z 04011KT 13/M03 A3033 RMK A01 T01331028  RH  033%=      5-min Rain = 0
KMC4 141929Z 03012KT 13/M03 A3033 RMK A01 T01321027  RH  033%=      5-min Rain = 0
KMC4 141930Z 03014KT 13/M03 A3033 RMK A01 T01321026  RH  033%=      5-min Rain = 0
KMC4 141931Z 03013KT 13/M03 A3033 RMK A01 T01331027  RH  033%=      5-min Rain = 0
KMC4 141932Z 02012KT 13/M03 A3033 RMK A01 T01331027  RH  033%=      5-min Rain = 0
KMC4 141933Z 04011G16KT 13/M03 A3033 RMK A01 T01321028  RH  033%=      5-min Rain = 0
KMC4 141934Z 04011G16KT 13/M03 A3033 RMK A01 T01321029  RH  033%=      5-min Rain = 0
KMC4 141935Z 03012KT 13/M03 A3033 RMK A01 T01311029  RH  033%=      5-min Rain = 0
KMC4 141936Z 01012KT 13/M03 A3033 RMK A01 T01321027  RH  033%=      5-min Rain = 0
KMC4 141937Z 02012KT 13/M03 A3033 RMK A01 T01321028  RH  033%=      5-min Rain = 0
KMC4 141938Z 02012KT 13/M03 A3033 RMK A01 T01321028  RH  033%=      5-min Rain = 0
KMC4 141939Z 03013KT 13/M03 A3033 RMK A01 T01331026  RH  033%=      5-min Rain = 0
KMC4 141940Z 03011KT 13/M03 A3033 RMK A01 T01331026  RH  033%=      5-min Rain = 0
KMC4 141941Z 02008KT 13/M03 A3033 RMK A01 T01331027  RH  033%=      5-min Rain = 0
KMC4 141942Z 04008G13KT 13/M03 A3033 RMK A01 T01321026  RH  033%=      5-min Rain = 0
KMC4 141943Z 04012KT 13/M03 A3033 RMK A01 T01331025  RH  033%=      5-min Rain = 0
KMC4 141944Z 03010KT 14/M02 A3033 RMK A01 T01351023  RH  034%=      5-min Rain = 0
KMC4 141945Z 06010KT 14/M02 A3033 RMK A01 T01361023  RH  033%=      5-min Rain = 0
KMC4 141946Z 05011KT 14/M03 A3033 RMK A01 T01371025  RH  033%=      5-min Rain = 0
KMC4 141947Z 04011KT 14/M02 A3033 RMK A01 T01371021  RH  033%=      5-min Rain = 0
KMC4 141948Z 05011KT 14/M02 A3033 RMK A01 T01401021  RH  033%=      5-min Rain = 0
KMC4 141949Z 05011KT 14/M02 A3033 RMK A01 T01401023  RH  032%=      5-min Rain = 0
KMC4 141950Z 06009KT 14/M03 A3032 RMK A01 T01391025  RH  032%=      5-min Rain = 0
KMC4 141951Z 06011KT 14/M02 A3032 RMK A01 T01391022  RH  033%=      5-min Rain = 0
KMC4 141952Z 05013G18KT 14/M02 A3032 RMK A01 T01391024  RH  032%=      5-min Rain = 0
KMC4 141953Z 03010G15KT 14/M03 A3033 RMK A01 T01381025  RH  032%=      5-min Rain = 0
KMC4 141954Z 04014KT 14/M02 A3032 RMK A01 T01381024  RH  032%=      5-min Rain = 0
KMC4 141955Z 03012KT 14/M03 A3032 RMK A01 T01371028  RH  032%=      5-min Rain = 0
KMC4 141956Z 04012KT 14/M03 A3032 RMK A01 T01361027  RH  032%=      5-min Rain = 0
KMC4 141957Z 05010G17KT 14/M02 A3032 RMK A01 T01371024  RH  033%=      5-min Rain = 0
KMC4 141958Z 03013KT 14/M02 A3032 RMK A01 T01391023  RH  032%=      5-min Rain = 0
KMC4 141959Z 04012KT 14/M03 A3032 RMK A01 T01381026  RH  032%=      5-min Rain = 0
KMC4 142000Z 04012KT 14/M02 A3032 RMK A01 T01381024  RH  033%=      5-min Rain = 0
KMC4 142001Z 04011KT 14/M03 A3032 RMK A01 T01381026  RH  032%=      5-min Rain = 0
KMC4 142002Z 03008KT 14/M02 A3032 RMK A01 T01361024  RH  033%=      5-min Rain = 0
KMC4 142003Z 04013G19KT 14/M02 A3032 RMK A01 T01371023  RH  033%=      5-min Rain = 0
KMC4 142004Z 03013KT 14/M02 A3032 RMK A01 T01381023  RH  033%=      5-min Rain = 0
KMC4 142005Z 01011KT 14/M02 A3032 RMK A01 T01381024  RH  032%=      5-min Rain = 0
KMC4 142006Z 02009KT 14/M03 A3032 RMK A01 T01371025  RH  032%=      5-min Rain = 0
KMC4 142007Z 03008KT 14/M02 A3032 RMK A01 T01371022  RH  033%=      5-min Rain = 0
KMC4 142008Z 02008KT 14/M02 A3032 RMK A01 T01381022  RH  033%=      5-min Rain = 0
KMC4 142009Z 03007G12KT 14/M02 A3032 RMK A01 T01391021  RH  033%=      5-min Rain = 0
KMC4 142010Z 02013KT 14/M02 A3032 RMK A01 T01411020  RH  033%=      5-min Rain = 0
KMC4 142011Z 02013KT 14/M02 A3032 RMK A01 T01411022  RH  032%=      5-min Rain = 0
KMC4 142012Z 02014KT 14/M02 A3032 RMK A01 T01391023  RH  032%=      5-min Rain = 0
KMC4 142013Z 01014KT 14/M02 A3032 RMK A01 T01371024  RH  033%=      5-min Rain = 0
KMC4 142014Z 02011KT 14/M03 A3032 RMK A01 T01361025  RH  033%=      5-min Rain = 0
KMC4 142015Z 04011KT 14/M02 A3032 RMK A01 T01361022  RH  033%=      5-min Rain = 0
KMC4 142016Z 04014G20KT 14/M02 A3032 RMK A01 T01371021  RH  033%=      5-min Rain = 0
KMC4 142017Z 03017KT 14/M02 A3032 RMK A01 T01371023  RH  033%=      5-min Rain = 0
KMC4 142018Z 03014KT 14/M02 A3032 RMK A01 T01371021  RH  033%=      5-min Rain = 0
KMC4 142019Z 03014KT 14/M02 A3032 RMK A01 T01371021  RH  034%=      5-min Rain = 0
KMC4 142020Z 02012KT 14/M02 A3032 RMK A01 T01361019  RH  034%=      5-min Rain = 0
KMC4 142021Z 01012KT 14/M02 A3032 RMK A01 T01361018  RH  034%=      5-min Rain = 0
KMC4 142022Z 36012KT 14/M02 A3032 RMK A01 T01361021  RH  034%=      5-min Rain = 0
KMC4 142023Z 01010KT 13/M02 A3032 RMK A01 T01341021  RH  034%=      5-min Rain = 0
KMC4 142024Z 02012KT 13/M02 A3032 RMK A01 T01341019  RH  035%=      5-min Rain = 0
KMC4 142025Z 02010KT 14/M02 A3032 RMK A01 T01361016  RH  035%=      5-min Rain = 0
KMC4 142026Z 02016KT 14/M02 A3032 RMK A01 T01371017  RH  034%=      5-min Rain = 0
KMC4 142027Z 03014KT 14/M02 A3032 RMK A01 T01371017  RH  034%=      5-min Rain = 0
KMC4 142028Z 03015KT 14/M02 A3032 RMK A01 T01381018  RH  034%=      5-min Rain = 0
KMC4 142029Z 03014KT 14/M02 A3032 RMK A01 T01371017  RH  034%=      5-min Rain = 0
KMC4 142030Z 03014KT 14/M02 A3032 RMK A01 T01371020  RH  034%=      5-min Rain = 0
KMC4 142031Z 03014KT 14/M02 A3032 RMK A01 T01351020  RH  034%=      5-min Rain = 0
KMC4 142032Z 04011KT 13/M02 A3032 RMK A01 T01341020  RH  034%=      5-min Rain = 0
KMC4 142033Z 03007KT 13/M02 A3032 RMK A01 T01331021  RH  034%=      5-min Rain = 0
KMC4 142034Z 03011G16KT 13/M02 A3032 RMK A01 T01321020  RH  035%=      5-min Rain = 0
KMC4 142035Z 02011KT 14/M02 A3032 RMK A01 T01351016  RH  035%=      5-min Rain = 0
KMC4 142036Z 02014KT 14/M02 A3032 RMK A01 T01381016  RH  035%=      5-min Rain = 0
KMC4 142037Z 03014KT 14/M02 A3032 RMK A01 T01381017  RH  034%=      5-min Rain = 0
KMC4 142038Z 03011KT 14/M02 A3032 RMK A01 T01371020  RH  034%=      5-min Rain = 0
KMC4 142039Z 02010KT 14/M02 A3032 RMK A01 T01351020  RH  034%=      5-min Rain = 0
KMC4 142040Z 01011KT 14/M02 A3032 RMK A01 T01351021  RH  034%=      5-min Rain = 0
KMC4 142041Z 03008KT 13/M02 A3032 RMK A01 T01341021  RH  034%=      5-min Rain = 0
KMC4 142042Z 03010KT 14/M02 A3032 RMK A01 T01361016  RH  035%=      5-min Rain = 0
KMC4 142043Z 03012KT 14/M02 A3032 RMK A01 T01381017  RH  034%=      5-min Rain = 0
KMC4 142044Z 04012KT 14/M02 A3032 RMK A01 T01381017  RH  034%=      5-min Rain = 0
KMC4 142045Z 03011KT 14/M02 A3032 RMK A01 T01381019  RH  034%=      5-min Rain = 0
KMC4 142046Z 05010KT 14/M02 A3032 RMK A01 T01381018  RH  034%=      5-min Rain = 0
KMC4 142047Z 05015KT 14/M02 A3032 RMK A01 T01371019  RH  034%=      5-min Rain = 0
KMC4 142048Z 05015KT 14/M02 A3032 RMK A01 T01371020  RH  034%=      5-min Rain = 0
KMC4 142049Z 04013KT 14/M02 A3032 RMK A01 T01361019  RH  034%=      5-min Rain = 0
KMC4 142050Z 04014KT 14/M02 A3032 RMK A01 T01371019  RH  034%=      5-min Rain = 0
KMC4 142051Z 04011KT 14/M02 A3032 RMK A01 T01361021  RH  034%=      5-min Rain = 0
KMC4 142052Z 04013G18KT 14/M02 A3032 RMK A01 T01351020  RH  034%=      5-min Rain = 0
KMC4 142053Z 03014KT 14/M02 A3032 RMK A01 T01351020  RH  034%=      5-min Rain = 0
KMC4 142054Z 03013KT 14/M02 A3032 RMK A01 T01351019  RH  034%=      5-min Rain = 0
KMC4 142055Z 02012KT 14/M02 A3032 RMK A01 T01351019  RH  034%=      5-min Rain = 0
KMC4 142056Z 00011KT 14/M02 A3032 RMK A01 T01351020  RH  034%=      5-min Rain = 0
KMC4 142057Z 01009KT 14/M02 A3032 RMK A01 T01351021  RH  034%=      5-min Rain = 0
KMC4 142058Z 02005KT 13/M02 A3032 RMK A01 T01341019  RH  035%=      5-min Rain = 0
KMC4 142059Z 03009G14KT 14/M01 A3032 RMK A01 T01371014  RH  035%=      5-min Rain = 0
KMC4 142100Z 03013KT 14/M02 A3032 RMK A01 T01391015  RH  035%=      5-min Rain = 0
KMC4 142101Z 03013KT 14/M02 A3032 RMK A01 T01401017  RH  034%=      5-min Rain = 0
KMC4 142102Z 04012KT 14/M02 A3032 RMK A01 T01371020  RH  034%=      5-min Rain = 0
KMC4 142103Z 05010KT 14/M02 A3032 RMK A01 T01361020  RH  034%=      5-min Rain = 0
KMC4 142104Z 04008KT 14/M02 A3032 RMK A01 T01351020  RH  034%=      5-min Rain = 0
KMC4 142105Z 04007KT 14/M02 A3032 RMK A01 T01351016  RH  035%=      5-min Rain = 0
KMC4 142106Z 05009KT 14/M02 A3032 RMK A01 T01371016  RH  035%=      5-min Rain = 0
KMC4 142107Z 05010KT 14/M02 A3032 RMK A01 T01381017  RH  034%=      5-min Rain = 0
KMC4 142108Z 04013KT 14/M02 A3032 RMK A01 T01381017  RH  034%=      5-min Rain = 0
KMC4 142109Z 03013KT 14/M02 A3032 RMK A01 T01371016  RH  035%=      5-min Rain = 0
KMC4 142110Z 03013KT 14/M02 A3033 RMK A01 T01381015  RH  035%=      5-min Rain = 0
KMC4 142111Z 01011KT 14/M02 A3033 RMK A01 T01381016  RH  034%=      5-min Rain = 0
KMC4 142112Z 01009KT 14/M02 A3033 RMK A01 T01371018  RH  034%=      5-min Rain = 0
KMC4 142113Z 01008KT 13/M02 A3033 RMK A01 T01341020  RH  034%=      5-min Rain = 0
KMC4 142114Z 04007KT 13/M02 A3033 RMK A01 T01331017  RH  035%=      5-min Rain = 0
KMC4 142115Z 05011G16KT 14/M02 A3032 RMK A01 T01351015  RH  035%=      5-min Rain = 0
KMC4 142116Z 04013KT 14/M02 A3032 RMK A01 T01361016  RH  035%=      5-min Rain = 0
KMC4 142117Z 02013KT 14/M02 A3033 RMK A01 T01371015  RH  035%=      5-min Rain = 0
KMC4 142118Z 03011KT 14/M02 A3033 RMK A01 T01371015  RH  035%=      5-min Rain = 0
KMC4 142119Z 03010KT 14/M02 A3033 RMK A01 T01371015  RH  035%=      5-min Rain = 0
KMC4 142120Z 04009KT 14/M01 A3033 RMK A01 T01371014  RH  035%=      5-min Rain = 0
KMC4 142121Z 04011KT 14/M02 A3032 RMK A01 T01381016  RH  035%=      5-min Rain = 0
KMC4 142122Z 03009KT 14/M02 A3032 RMK A01 T01361018  RH  035%=      5-min Rain = 0
KMC4 142123Z 04006KT 14/M01 A3032 RMK A01 T01361014  RH  036%=      5-min Rain = 0
KMC4 142124Z 04008KT 14/M01 A3032 RMK A01 T01381011  RH  036%=      5-min Rain = 0
KMC4 142125Z 05011KT 14/M01 A3032 RMK A01 T01411012  RH  035%=      5-min Rain = 0
KMC4 142126Z 05009KT 14/M02 A3032 RMK A01 T01401015  RH  034%=      5-min Rain = 0
KMC4 142127Z 06008KT 14/M02 A3032 RMK A01 T01381015  RH  035%=      5-min Rain = 0
KMC4 142128Z 05008KT 14/M02 A3032 RMK A01 T01381015  RH  035%=      5-min Rain = 0
KMC4 142129Z 05007KT 14/M01 A3032 RMK A01 T01381013  RH  035%=      5-min Rain = 0
KMC4 142130Z 05008KT 14/M01 A3032 RMK A01 T01401012  RH  035%=      5-min Rain = 0
KMC4 142131Z 04010KT 14/M01 A3032 RMK A01 T01401014  RH  034%=      5-min Rain = 0
KMC4 142132Z 03012KT 14/M02 A3032 RMK A01 T01391015  RH  034%=      5-min Rain = 0
KMC4 142133Z 04010KT 14/M02 A3033 RMK A01 T01381016  RH  035%=      5-min Rain = 0
KMC4 142134Z 05011KT 14/M02 A3032 RMK A01 T01371016  RH  035%=      5-min Rain = 0
KMC4 142135Z 04012KT 14/M02 A3032 RMK A01 T01371016  RH  035%=      5-min Rain = 0
KMC4 142136Z 05010KT 14/M02 A3032 RMK A01 T01361016  RH  035%=      5-min Rain = 0
KMC4 142137Z 03009KT 14/M02 A3032 RMK A01 T01361015  RH  035%=      5-min Rain = 0
KMC4 142138Z 04009KT 14/M02 A3032 RMK A01 T01371015  RH  035%=      5-min Rain = 0
KMC4 142139Z 05011KT 14/M01 A3032 RMK A01 T01371014  RH  035%=      5-min Rain = 0
KMC4 142140Z 05011KT 14/M01 A3032 RMK A01 T01381014  RH  035%=      5-min Rain = 0
KMC4 142141Z 04011KT 14/M01 A3032 RMK A01 T01381013  RH  035%=      5-min Rain = 0
KMC4 142142Z 04011KT 14/M01 A3032 RMK A01 T01391011  RH  036%=      5-min Rain = 0
KMC4 142143Z 05009KT 14/M01 A3032 RMK A01 T01391014  RH  035%=      5-min Rain = 0
KMC4 142144Z 06012KT 14/M01 A3032 RMK A01 T01391013  RH  035%=      5-min Rain = 0
KMC4 142145Z 04012KT 14/M01 A3033 RMK A01 T01381013  RH  035%=      5-min Rain = 0
KMC4 142146Z 02009KT 14/M01 A3033 RMK A01 T01381014  RH  035%=      5-min Rain = 0
KMC4 142147Z 02008KT 14/M01 A3033 RMK A01 T01381012  RH  036%=      5-min Rain = 0
KMC4 142148Z 02009KT 14/M01 A3033 RMK A01 T01381013  RH  035%=      5-min Rain = 0
KMC4 142149Z 03009G15KT 14/M01 A3033 RMK A01 T01381012  RH  036%=      5-min Rain = 0
KMC4 142150Z 03013KT 14/M01 A3033 RMK A01 T01381013  RH  035%=      5-min Rain = 0
KMC4 142151Z 04011KT 14/M01 A3033 RMK A01 T01381013  RH  035%=      5-min Rain = 0
KMC4 142152Z 03010KT 14/M01 A3033 RMK A01 T01371012  RH  036%=      5-min Rain = 0
KMC4 142153Z 02008G13KT 14/M01 A3033 RMK A01 T01381013  RH  035%=      5-min Rain = 0
KMC4 142154Z 04009KT 14/M01 A3033 RMK A01 T01371013  RH  035%=      5-min Rain = 0
KMC4 142155Z 03006KT 14/M01 A3033 RMK A01 T01371013  RH  036%=      5-min Rain = 0
KMC4 142156Z 02006KT 14/M01 A3033 RMK A01 T01361013  RH  035%=      5-min Rain = 0
KMC4 142157Z 04007KT 14/M01 A3033 RMK A01 T01361012  RH  036%=      5-min Rain = 0
KMC4 142158Z 03008KT 14/M01 A3033 RMK A01 T01371010  RH  036%=      5-min Rain = 0
KMC4 142159Z 04011KT 14/M01 A3033 RMK A01 T01391010  RH  036%=      5-min Rain = 0
KMC4 142200Z 04011KT 14/M01 A3033 RMK A01 T01391012  RH  035%=      5-min Rain = 0
KMC4 142201Z 04008KT 14/M01 A3033 RMK A01 T01381012  RH  035%=      5-min Rain = 0
KMC4 142202Z 04007KT 14/M01 A3033 RMK A01 T01381012  RH  036%=      5-min Rain = 0
KMC4 142203Z 04008KT 14/M01 A3033 RMK A01 T01381009  RH  036%=      5-min Rain = 0
KMC4 142204Z 05007KT 14/M01 A3033 RMK A01 T01411007  RH  036%=      5-min Rain = 0
KMC4 142205Z 06010KT 14/M01 A3033 RMK A01 T01421011  RH  035%=      5-min Rain = 0
KMC4 142206Z 05011KT 14/M01 A3033 RMK A01 T01391013  RH  035%=      5-min Rain = 0
KMC4 142207Z 05010KT 14/M01 A3033 RMK A01 T01381014  RH  035%=      5-min Rain = 0
KMC4 142208Z 05010KT 14/M01 A3033 RMK A01 T01371014  RH  035%=      5-min Rain = 0
KMC4 142209Z 05011KT 14/M01 A3033 RMK A01 T01361014  RH  035%=      5-min Rain = 0
KMC4 142210Z 05010KT 14/M01 A3033 RMK A01 T01361014  RH  035%=      5-min Rain = 0
KMC4 142211Z 04009KT 14/M01 A3033 RMK A01 T01371012  RH  036%=      5-min Rain = 0
KMC4 142212Z 04008KT 14/M01 A3033 RMK A01 T01381011  RH  036%=      5-min Rain = 0
KMC4 142213Z 03011KT 14/M01 A3033 RMK A01 T01391013  RH  035%=      5-min Rain = 0
KMC4 142214Z 05009KT 14/M01 A3033 RMK A01 T01381013  RH  035%=      5-min Rain = 0
KMC4 142215Z 05010KT 14/M01 A3033 RMK A01 T01381012  RH  036%=      5-min Rain = 0
KMC4 142216Z 04010KT 14/M01 A3033 RMK A01 T01381014  RH  035%=      5-min Rain = 0
KMC4 142217Z 04010KT 14/M01 A3033 RMK A01 T01381014  RH  035%=      5-min Rain = 0
KMC4 142218Z 06010KT 14/M01 A3033 RMK A01 T01371013  RH  035%=      5-min Rain = 0
KMC4 142219Z 06009KT 14/M02 A3033 RMK A01 T01371015  RH  035%=      5-min Rain = 0
KMC4 142220Z 06009KT 14/M01 A3033 RMK A01 T01361014  RH  035%=      5-min Rain = 0
KMC4 142221Z 05007KT 14/M01 A3033 RMK A01 T01371013  RH  036%=      5-min Rain = 0
KMC4 142222Z 03010KT 14/M01 A3034 RMK A01 T01371013  RH  035%=      5-min Rain = 0
KMC4 142223Z 03012KT 14/M01 A3034 RMK A01 T01371013  RH  035%=      5-min Rain = 0
KMC4 142224Z 02011KT 14/M01 A3033 RMK A01 T01371014  RH  035%=      5-min Rain = 0
KMC4 142225Z 03011KT 14/M01 A3034 RMK A01 T01361013  RH  036%=      5-min Rain = 0
KMC4 142226Z 04011KT 14/M01 A3034 RMK A01 T01361013  RH  036%=      5-min Rain = 0
KMC4 142227Z 04009KT 14/M01 A3034 RMK A01 T01361012  RH  036%=      5-min Rain = 0
KMC4 142228Z 04011KT 14/M01 A3034 RMK A01 T01371013  RH  036%=      5-min Rain = 0
KMC4 142229Z 04010KT 14/M02 A3034 RMK A01 T01361016  RH  035%=      5-min Rain = 0
KMC4 142230Z 05008KT 13/M02 A3034 RMK A01 T01341015  RH  035%=      5-min Rain = 0
KMC4 142231Z 05008KT 14/M02 A3034 RMK A01 T01351015  RH  035%=      5-min Rain = 0
KMC4 142232Z 05007KT 14/M01 A3034 RMK A01 T01351013  RH  036%=      5-min Rain = 0
KMC4 142233Z 03009KT 14/M01 A3034 RMK A01 T01361013  RH  036%=      5-min Rain = 0
KMC4 142234Z 03006KT 14/M01 A3034 RMK A01 T01361013  RH  036%=      5-min Rain = 0
KMC4 142235Z 03010KT 14/M01 A3034 RMK A01 T01361012  RH  036%=      5-min Rain = 0
KMC4 142236Z 03012KT 14/M01 A3034 RMK A01 T01361013  RH  036%=      5-min Rain = 0
KMC4 142237Z 03011KT 14/M01 A3034 RMK A01 T01351014  RH  036%=      5-min Rain = 0
KMC4 142238Z 03011KT 14/M01 A3034 RMK A01 T01351014  RH  036%=      5-min Rain = 0
KMC4 142239Z 03010KT 13/M02 A3034 RMK A01 T01341015  RH  036%=      5-min Rain = 0
KMC4 142240Z 04008KT 13/M02 A3034 RMK A01 T01341015  RH  036%=      5-min Rain = 0
KMC4 142241Z 05009KT 13/M01 A3034 RMK A01 T01341014  RH  036%=      5-min Rain = 0
KMC4 142242Z 04010KT 13/M01 A3034 RMK A01 T01341014  RH  036%=      5-min Rain = 0
KMC4 142243Z 03009KT 13/M01 A3034 RMK A01 T01341014  RH  036%=      5-min Rain = 0
KMC4 142244Z 01007KT 13/M02 A3034 RMK A01 T01341015  RH  036%=      5-min Rain = 0
KMC4 142245Z 01008KT 13/M02 A3034 RMK A01 T01341015  RH  036%=      5-min Rain = 0
KMC4 142246Z 03007KT 13/M01 A3034 RMK A01 T01341014  RH  036%=      5-min Rain = 0
KMC4 142247Z 04007KT 13/M01 A3034 RMK A01 T01341011  RH  037%=      5-min Rain = 0
KMC4 142248Z 03009KT 14/M01 A3035 RMK A01 T01351012  RH  036%=      5-min Rain = 0
KMC4 142249Z 04010KT 14/M01 A3034 RMK A01 T01351014  RH  036%=      5-min Rain = 0
KMC4 142250Z 02008KT 13/M02 A3035 RMK A01 T01341015  RH  036%=      5-min Rain = 0
KMC4 142251Z 01008KT 13/M02 A3035 RMK A01 T01331016  RH  036%=      5-min Rain = 0
KMC4 142252Z 01010KT 13/M02 A3035 RMK A01 T01321017  RH  035%=      5-min Rain = 0
KMC4 142253Z 04009KT 13/M02 A3035 RMK A01 T01321015  RH  036%=      5-min Rain = 0
KMC4 142254Z 03008KT 13/M01 A3035 RMK A01 T01321014  RH  036%=      5-min Rain = 0
KMC4 142255Z 02007KT 13/M02 A3035 RMK A01 T01331015  RH  036%=      5-min Rain = 0
KMC4 142256Z 02009KT 13/M01 A3035 RMK A01 T01331014  RH  036%=      5-min Rain = 0
KMC4 142257Z 02010KT 13/M01 A3035 RMK A01 T01331014  RH  036%=      5-min Rain = 0
KMC4 142258Z 02011KT 13/M02 A3035 RMK A01 T01321016  RH  036%=      5-min Rain = 0
KMC4 142259Z 02011KT 13/M02 A3035 RMK A01 T01321017  RH  036%=      5-min Rain = 0
KMC4 142300Z 01009KT 13/M02 A3035 RMK A01 T01311017  RH  036%=      5-min Rain = 0
KMC4 142301Z 02008KT 13/M02 A3035 RMK A01 T01311016  RH  036%=      5-min Rain = 0
KMC4 142302Z 02008KT 13/M02 A3035 RMK A01 T01311015  RH  036%=      5-min Rain = 0
KMC4 142303Z 03009KT 13/M01 A3035 RMK A01 T01311014  RH  037%=      5-min Rain = 0
KMC4 142304Z 03008KT 13/M01 A3035 RMK A01 T01311014  RH  037%=      5-min Rain = 0
KMC4 142305Z 03010KT 13/M01 A3035 RMK A01 T01311014  RH  037%=      5-min Rain = 0
KMC4 142306Z 03009KT 13/M02 A3035 RMK A01 T01311016  RH  036%=      5-min Rain = 0
KMC4 142307Z 03008KT 13/M01 A3035 RMK A01 T01301014  RH  037%=      5-min Rain = 0
KMC4 142308Z 03010KT 13/M02 A3035 RMK A01 T01301016  RH  036%=      5-min Rain = 0
KMC4 142309Z 01008KT 13/M02 A3035 RMK A01 T01301017  RH  036%=      5-min Rain = 0
KMC4 142310Z 01006KT 13/M02 A3035 RMK A01 T01291015  RH  037%=      5-min Rain = 0
KMC4 142311Z 01008KT 13/M02 A3035 RMK A01 T01291016  RH  037%=      5-min Rain = 0
KMC4 142312Z 02007KT 13/M02 A3035 RMK A01 T01291015  RH  037%=      5-min Rain = 0
KMC4 142313Z 03008KT 13/M01 A3035 RMK A01 T01291014  RH  037%=      5-min Rain = 0
KMC4 142314Z 02009G14KT 13/M01 A3035 RMK A01 T01291013  RH  037%=      5-min Rain = 0
KMC4 142315Z 02009KT 13/M01 A3035 RMK A01 T01291014  RH  037%=      5-min Rain = 0
KMC4 142316Z 03010KT 13/M02 A3035 RMK A01 T01291016  RH  037%=      5-min Rain = 0
KMC4 142317Z 03009KT 13/M02 A3035 RMK A01 T01281016  RH  037%=      5-min Rain = 0
KMC4 142318Z 04009KT 13/M02 A3035 RMK A01 T01281015  RH  037%=      5-min Rain = 0
KMC4 142319Z 04007KT 13/M02 A3035 RMK A01 T01281016  RH  037%=      5-min Rain = 0
KMC4 142320Z 04009KT 13/M01 A3035 RMK A01 T01291014  RH  037%=      5-min Rain = 0
KMC4 142321Z 03010KT 13/M02 A3035 RMK A01 T01281015  RH  037%=      5-min Rain = 0
KMC4 142322Z 04009G14KT 13/M02 A3035 RMK A01 T01281015  RH  037%=      5-min Rain = 0
KMC4 142323Z 04011KT 13/M02 A3035 RMK A01 T01281016  RH  037%=      5-min Rain = 0
KMC4 142324Z 04009KT 13/M02 A3035 RMK A01 T01271016  RH  037%=      5-min Rain = 0
KMC4 142325Z 03010KT 13/M02 A3035 RMK A01 T01271016  RH  037%=      5-min Rain = 0
KMC4 142326Z 03010KT 13/M02 A3036 RMK A01 T01261016  RH  037%=      5-min Rain = 0
KMC4 142327Z 04009KT 13/M02 A3035 RMK A01 T01261015  RH  037%=      5-min Rain = 0
KMC4 142328Z 04010KT 13/M02 A3036 RMK A01 T01261015  RH  037%=      5-min Rain = 0
KMC4 142329Z 04009KT 13/M02 A3036 RMK A01 T01261015  RH  038%=      5-min Rain = 0
KMC4 142330Z 04009KT 13/M02 A3036 RMK A01 T01251015  RH  038%=      5-min Rain = 0
KMC4 142331Z 03009KT 13/M01 A3036 RMK A01 T01251014  RH  038%=      5-min Rain = 0
KMC4 142332Z 04007KT 13/M01 A3036 RMK A01 T01251013  RH  038%=      5-min Rain = 0
KMC4 142333Z 03007KT 12/M01 A3036 RMK A01 T01241013  RH  038%=      5-min Rain = 0
KMC4 142334Z 04006KT 12/M01 A3036 RMK A01 T01241013  RH  039%=      5-min Rain = 0
KMC4 142335Z 04007KT 12/M01 A3036 RMK A01 T01241013  RH  039%=      5-min Rain = 0
KMC4 142336Z 04007KT 12/M01 A3036 RMK A01 T01241013  RH  039%=      5-min Rain = 0
KMC4 142337Z 04006KT 12/M01 A3036 RMK A01 T01241013  RH  039%=      5-min Rain = 0
KMC4 142338Z 04007KT 12/M01 A3036 RMK A01 T01231012  RH  039%=      5-min Rain = 0
KMC4 142339Z 04006KT 12/M01 A3036 RMK A01 T01231013  RH  039%=      5-min Rain = 0
KMC4 142340Z 04005KT 12/M01 A3036 RMK A01 T01231012  RH  039%=      5-min Rain = 0
KMC4 142341Z 03005KT 12/M01 A3036 RMK A01 T01231010  RH  040%=      5-min Rain = 0
KMC4 142342Z 03004KT 12/M01 A3036 RMK A01 T01221009  RH  040%=      5-min Rain = 0
KMC4 142343Z 03005KT 12/M01 A3036 RMK A01 T01211009  RH  040%=      5-min Rain = 0
KMC4 142344Z 03006KT 12/M01 A3036 RMK A01 T01211009  RH  041%=      5-min Rain = 0
KMC4 142345Z 03006KT 12/M01 A3036 RMK A01 T01201009  RH  041%=      5-min Rain = 0
KMC4 142346Z 03005KT 12/M01 A3036 RMK A01 T01201008  RH  041%=      5-min Rain = 0
KMC4 142347Z 03005KT 12/M01 A3036 RMK A01 T01201008  RH  041%=      5-min Rain = 0
KMC4 142348Z 03006KT 12/M01 A3036 RMK A01 T01201008  RH  041%=      5-min Rain = 0
KMC4 142349Z 02005KT 12/M01 A3037 RMK A01 T01191007  RH  042%=      5-min Rain = 0
KMC4 142350Z 03004KT 12/M01 A3037 RMK A01 T01191007  RH  042%=      5-min Rain = 0
KMC4 142351Z 03005KT 12/M01 A3037 RMK A01 T01181007  RH  042%=      5-min Rain = 0
KMC4 142352Z 03006KT 12/M01 A3037 RMK A01 T01181006  RH  042%=      5-min Rain = 0
KMC4 142353Z 02006KT 12/M01 A3037 RMK A01 T01181006  RH  042%=      5-min Rain = 0
KMC4 142354Z 02005KT 12/M01 A3037 RMK A01 T01181006  RH  043%=      5-min Rain = 0
KMC4 142355Z 02004KT 12/M01 A3037 RMK A01 T01171005  RH  043%=      5-min Rain = 0
KMC4 142356Z 02005KT 12/M01 A3037 RMK A01 T01161005  RH  043%=      5-min Rain = 0
KMC4 142357Z 02006KT 12/M01 A3037 RMK A01 T01161005  RH  043%=      5-min Rain = 0
KMC4 142358Z 02005KT 12/M01 A3037 RMK A01 T01161005  RH  043%=      5-min Rain = 0
KMC4 142359Z 02005KT 12/M00 A3037 RMK A01 T01161003  RH  044%=      5-min Rain = 0
KMC4 150000Z 02005KT 12/M00 A3037 RMK A01 T01151004  RH  044%=      5-min Rain = 0
KMC4 150001Z 02005KT 12/M00 A3037 RMK A01 T01151003  RH  044%=      5-min Rain = 0
KMC4 150002Z 03005KT 12/M00 A3037 RMK A01 T01151003  RH  044%=      5-min Rain = 0
KMC4 150003Z 03005KT 11/M00 A3037 RMK A01 T01141002  RH  045%=      5-min Rain = 0
KMC4 150004Z 03004KT 11/M00 A3037 RMK A01 T01131002  RH  045%=      5-min Rain = 0
KMC4 150005Z 03005KT 11/M00 A3037 RMK A01 T01131002  RH  045%=      5-min Rain = 0
KMC4 150006Z 01004KT 11/M00 A3038 RMK A01 T01131003  RH  045%=      5-min Rain = 0
KMC4 150007Z 02004KT 11/M00 A3038 RMK A01 T01131002  RH  045%=      5-min Rain = 0
KMC4 150008Z 02005KT 11/M00 A3038 RMK A01 T01131003  RH  045%=      5-min Rain = 0
KMC4 150009Z 02003KT 11/M00 A3038 RMK A01 T01131002  RH  045%=      5-min Rain = 0
KMC4 150010Z 02004KT 11/M00 A3038 RMK A01 T01121002  RH  045%=      5-min Rain = 0
KMC4 150011Z 02004KT 11/M00 A3038 RMK A01 T01111001  RH  046%=      5-min Rain = 0
KMC4 150012Z 01005KT 11/M00 A3038 RMK A01 T01111002  RH  046%=      5-min Rain = 0
KMC4 150013Z 02004KT 11/M00 A3038 RMK A01 T01111002  RH  046%=      5-min Rain = 0
KMC4 150014Z 02004KT 11/M00 A3038 RMK A01 T01111001  RH  046%=      5-min Rain = 0
KMC4 150015Z 02004KT 11/M00 A3038 RMK A01 T01101001  RH  046%=      5-min Rain = 0
KMC4 150016Z 02005KT 11/M00 A3038 RMK A01 T01101001  RH  046%=      5-min Rain = 0
KMC4 150017Z 02004KT 11/M00 A3038 RMK A01 T01101001  RH  046%=      5-min Rain = 0
KMC4 150018Z 02003KT 11/00 A3038 RMK A01 T010900-0  RH  047%=      5-min Rain = 0
KMC4 150019Z 02004KT 11/M00 A3038 RMK A01 T01091001  RH  047%=      5-min Rain = 0
KMC4 150020Z 02005KT 11/M00 A3038 RMK A01 T01091001  RH  047%=      5-min Rain = 0
KMC4 150021Z 02005KT 11/M00 A3038 RMK A01 T01081001  RH  047%=      5-min Rain = 0
KMC4 150022Z 02005KT 11/00 A3038 RMK A01 T010800-0  RH  047%=      5-min Rain = 0
KMC4 150023Z 02005KT 11/00 A3038 RMK A01 T010800-0  RH  047%=      5-min Rain = 0
KMC4 150024Z 01004KT 11/00 A3038 RMK A01 T010800-0  RH  047%=      5-min Rain = 0
KMC4 150025Z 02004KT 11/00 A3038 RMK A01 T010700-0  RH  047%=      5-min Rain = 0
KMC4 150026Z 02003KT 11/00 A3038 RMK A01 T010700-0  RH  047%=      5-min Rain = 0
KMC4 150027Z 01004KT 11/00 A3038 RMK A01 T01070000  RH  047%=      5-min Rain = 0
KMC4 150028Z 01004KT 11/M00 A3038 RMK A01 T01071001  RH  047%=      5-min Rain = 0
KMC4 150029Z 01004KT 11/00 A3038 RMK A01 T010700-0  RH  048%=      5-min Rain = 0
KMC4 150030Z 02004KT 11/00 A3038 RMK A01 T01060000  RH  048%=      5-min Rain = 0
KMC4 150031Z 01004KT 11/00 A3038 RMK A01 T01060000  RH  048%=      5-min Rain = 0
KMC4 150032Z 01003KT 11/00 A3038 RMK A01 T01050001  RH  048%=      5-min Rain = 0
KMC4 150033Z 01004KT 11/00 A3038 RMK A01 T01050001  RH  049%=      5-min Rain = 0
KMC4 150034Z 01004KT 10/00 A3038 RMK A01 T01040000  RH  048%=      5-min Rain = 0
KMC4 150035Z 01003KT 10/00 A3038 RMK A01 T01040000  RH  048%=      5-min Rain = 0
KMC4 150036Z 01003KT 10/00 A3038 RMK A01 T01040000  RH  048%=      5-min Rain = 0
KMC4 150037Z 01004KT 10/00 A3038 RMK A01 T01040000  RH  049%=      5-min Rain = 0
KMC4 150038Z 01004KT 10/00 A3038 RMK A01 T01030001  RH  049%=      5-min Rain = 0
KMC4 150039Z 01003KT 10/00 A3039 RMK A01 T01030000  RH  049%=      5-min Rain = 0
KMC4 150040Z 01004KT 10/00 A3039 RMK A01 T01020000  RH  049%=      5-min Rain = 0
KMC4 150041Z 00004KT 10/00 A3039 RMK A01 T010200-0  RH  049%=      5-min Rain = 0
KMC4 150042Z 00004KT 10/00 A3039 RMK A01 T01020000  RH  049%=      5-min Rain = 0
KMC4 150043Z 01003KT 10/00 A3039 RMK A01 T01020000  RH  049%=      5-min Rain = 0
KMC4 150044Z 00003KT 10/00 A3039 RMK A01 T01010001  RH  050%=      5-min Rain = 0
KMC4 150045Z 00003KT 10/00 A3039 RMK A01 T01010001  RH  050%=      5-min Rain = 0
KMC4 150046Z 00003KT 10/00 A3039 RMK A01 T01000002  RH  051%=      5-min Rain = 0
KMC4 150047Z 00003KT 10/00 A3039 RMK A01 T00990001  RH  051%=      5-min Rain = 0
KMC4 150048Z 01003KT 10/00 A3039 RMK A01 T00990001  RH  051%=      5-min Rain = 0
KMC4 150049Z 00003KT 10/00 A3039 RMK A01 T00980001  RH  051%=      5-min Rain = 0
KMC4 150050Z 01003KT 10/00 A3039 RMK A01 T00990001  RH  051%=      5-min Rain = 0
KMC4 150051Z 00003KT 10/00 A3039 RMK A01 T00980001  RH  051%=      5-min Rain = 0
KMC4 150052Z 01004KT 10/00 A3039 RMK A01 T00970001  RH  051%=      5-min Rain = 0
KMC4 150053Z 00004KT 10/00 A3039 RMK A01 T00970001  RH  051%=      5-min Rain = 0
KMC4 150054Z 01004KT 10/00 A3039 RMK A01 T00970001  RH  051%=      5-min Rain = 0
KMC4 150055Z 01003KT 10/00 A3039 RMK A01 T00970000  RH  051%=      5-min Rain = 0
KMC4 150056Z 01003KT 10/00 A3039 RMK A01 T00970001  RH  051%=      5-min Rain = 0
KMC4 150057Z 01003KT 10/00 A3039 RMK A01 T00970000  RH  051%=      5-min Rain = 0
KMC4 150058Z 01004KT 10/00 A3039 RMK A01 T00970000  RH  051%=      5-min Rain = 0
KMC4 150059Z 01004KT 10/00 A304 RMK A01 T00970001  RH  051%=      5-min Rain = 0
KMC4 150100Z 01004KT 10/00 A304 RMK A01 T00970000  RH  051%=      5-min Rain = 0
KMC4 150101Z 00004KT 10/00 A304 RMK A01 T00960000  RH  051%=      5-min Rain = 0
KMC4 150102Z 01004KT 10/00 A304 RMK A01 T00960000  RH  051%=      5-min Rain = 0
KMC4 150103Z 01003KT 10/00 A304 RMK A01 T00960000  RH  051%=      5-min Rain = 0
KMC4 150104Z 01003KT 10/00 A304 RMK A01 T00960001  RH  052%=      5-min Rain = 0
KMC4 150105Z 01003KT 10/00 A304 RMK A01 T00950001  RH  052%=      5-min Rain = 0
KMC4 150106Z 01003KT 09/00 A304 RMK A01 T00940001  RH  052%=      5-min Rain = 0
KMC4 150107Z 01003KT 09/00 A304 RMK A01 T00940001  RH  052%=      5-min Rain = 0
KMC4 150108Z 01003KT 09/00 A304 RMK A01 T00930001  RH  053%=      5-min Rain = 0
KMC4 150109Z 01003KT 09/00 A304 RMK A01 T00930001  RH  053%=      5-min Rain = 0
KMC4 150110Z 01003KT 09/00 A304 RMK A01 T00930001  RH  053%=      5-min Rain = 0
KMC4 150111Z 01004KT 09/00 A304 RMK A01 T00920001  RH  053%=      5-min Rain = 0
KMC4 150112Z 00004KT 09/00 A304 RMK A01 T00920001  RH  053%=      5-min Rain = 0
KMC4 150113Z 01004KT 09/00 A304 RMK A01 T00920001  RH  053%=      5-min Rain = 0
KMC4 150114Z 00004KT 09/00 A304 RMK A01 T00910001  RH  053%=      5-min Rain = 0
KMC4 150115Z 00004KT 09/00 A304 RMK A01 T00910001  RH  053%=      5-min Rain = 0
KMC4 150116Z 01004KT 09/00 A304 RMK A01 T00900001  RH  054%=      5-min Rain = 0
KMC4 150117Z 01003KT 09/00 A304 RMK A01 T00900001  RH  054%=      5-min Rain = 0
KMC4 150118Z 00003KT 09/00 A304 RMK A01 T00890002  RH  054%=      5-min Rain = 0
KMC4 150119Z 00004KT 09/00 A304 RMK A01 T00890002  RH  055%=      5-min Rain = 0
KMC4 150120Z 00003KT 09/00 A304 RMK A01 T00880002  RH  055%=      5-min Rain = 0
KMC4 150121Z 00004KT 09/00 A304 RMK A01 T00870002  RH  055%=      5-min Rain = 0
KMC4 150122Z 00004KT 09/00 A3041 RMK A01 T00870002  RH  055%=      5-min Rain = 0
KMC4 150123Z 00004KT 09/00 A3041 RMK A01 T00870001  RH  055%=      5-min Rain = 0
KMC4 150124Z 00004KT 09/00 A3041 RMK A01 T00870001  RH  055%=      5-min Rain = 0
KMC4 150125Z 01004KT 09/00 A3041 RMK A01 T00870001  RH  055%=      5-min Rain = 0
KMC4 150126Z 01004KT 09/00 A3041 RMK A01 T00860002  RH  055%=      5-min Rain = 0
KMC4 150127Z 00004KT 09/00 A3041 RMK A01 T00860001  RH  055%=      5-min Rain = 0
KMC4 150128Z 00004KT 09/00 A3041 RMK A01 T00860001  RH  055%=      5-min Rain = 0
KMC4 150129Z 00004KT 09/00 A3041 RMK A01 T00860002  RH  056%=      5-min Rain = 0
KMC4 150130Z 00004KT 09/00 A3041 RMK A01 T00850001  RH  056%=      5-min Rain = 0
KMC4 150131Z 00004KT 09/00 A3041 RMK A01 T00850002  RH  056%=      5-min Rain = 0
KMC4 150132Z 00004KT 08/00 A3041 RMK A01 T00840001  RH  056%=      5-min Rain = 0
KMC4 150133Z 00004KT 08/00 A3041 RMK A01 T00840001  RH  056%=      5-min Rain = 0
KMC4 150134Z 00004KT 08/00 A3041 RMK A01 T00840000  RH  056%=      5-min Rain = 0
KMC4 150135Z 01004KT 08/00 A3041 RMK A01 T00840000  RH  055%=      5-min Rain = 0
KMC4 150136Z 00004KT 08/00 A3041 RMK A01 T00840000  RH  056%=      5-min Rain = 0
KMC4 150137Z 00004KT 08/00 A3041 RMK A01 T00840001  RH  056%=      5-min Rain = 0
KMC4 150138Z 00004KT 08/00 A3041 RMK A01 T00840001  RH  056%=      5-min Rain = 0
KMC4 150139Z 00004KT 08/00 A3041 RMK A01 T00840001  RH  056%=      5-min Rain = 0
KMC4 150140Z 00004KT 08/00 A3041 RMK A01 T00830001  RH  057%=      5-min Rain = 0
KMC4 150141Z 00004KT 08/00 A3041 RMK A01 T00820001  RH  057%=      5-min Rain = 0
KMC4 150142Z 00004KT 08/00 A3041 RMK A01 T00820001  RH  057%=      5-min Rain = 0
KMC4 150143Z 01004KT 08/00 A3041 RMK A01 T00810001  RH  057%=      5-min Rain = 0
KMC4 150144Z 01004KT 08/00 A3041 RMK A01 T00810001  RH  057%=      5-min Rain = 0
KMC4 150145Z 01004KT 08/00 A3041 RMK A01 T00810000  RH  057%=      5-min Rain = 0
KMC4 150146Z 01004KT 08/00 A3041 RMK A01 T00810000  RH  057%=      5-min Rain = 0
KMC4 150147Z 01003KT 08/00 A3041 RMK A01 T00810000  RH  057%=      5-min Rain = 0
KMC4 150148Z 01003KT 08/00 A3041 RMK A01 T00820001  RH  057%=      5-min Rain = 0
KMC4 150149Z 02003KT 08/00 A3042 RMK A01 T00810001  RH  057%=      5-min Rain = 0
KMC4 150150Z 02003KT 08/00 A3042 RMK A01 T00810001  RH  057%=      5-min Rain = 0
KMC4 150151Z 02003KT 08/00 A3042 RMK A01 T00800003  RH  058%=      5-min Rain = 0
KMC4 150152Z 02003KT 08/00 A3042 RMK A01 T00790002  RH  058%=      5-min Rain = 0
KMC4 150153Z 02004KT 08/00 A3042 RMK A01 T00790002  RH  058%=      5-min Rain = 0
KMC4 150154Z 01004KT 08/00 A3042 RMK A01 T00790003  RH  059%=      5-min Rain = 0
KMC4 150155Z 01004KT 08/00 A3042 RMK A01 T00780002  RH  059%=      5-min Rain = 0
KMC4 150156Z 01004KT 08/00 A3042 RMK A01 T00780001  RH  058%=      5-min Rain = 0
KMC4 150157Z 01004KT 08/00 A3042 RMK A01 T00790000  RH  058%=      5-min Rain = 0
KMC4 150158Z 01004KT 08/00 A3042 RMK A01 T00790001  RH  057%=      5-min Rain = 0
KMC4 150159Z 02003KT 08/00 A3042 RMK A01 T00800001  RH  058%=      5-min Rain = 0
KMC4 150200Z 02003KT 08/00 A3042 RMK A01 T00800001  RH  057%=      5-min Rain = 0
KMC4 150201Z 01003KT 08/00 A3042 RMK A01 T00800001  RH  058%=      5-min Rain = 0
KMC4 150202Z 01003KT 08/00 A3042 RMK A01 T00790001  RH  058%=      5-min Rain = 0
KMC4 150203Z 01003KT 08/00 A3042 RMK A01 T00790001  RH  058%=      5-min Rain = 0
KMC4 150204Z 01004KT 08/00 A3042 RMK A01 T00790001  RH  058%=      5-min Rain = 0
KMC4 150205Z 00004KT 08/00 A3042 RMK A01 T00780001  RH  058%=      5-min Rain = 0
KMC4 150206Z 01003KT 08/00 A3042 RMK A01 T00780001  RH  058%=      5-min Rain = 0
KMC4 150207Z 01003KT 08/00 A3042 RMK A01 T00770001  RH  059%=      5-min Rain = 0
KMC4 150208Z 02003KT 08/00 A3042 RMK A01 T00760001  RH  059%=      5-min Rain = 0
KMC4 150209Z 02003KT 08/00 A3042 RMK A01 T00760002  RH  059%=      5-min Rain = 0
KMC4 150210Z 02004KT 08/00 A3042 RMK A01 T00750003  RH  060%=      5-min Rain = 0
KMC4 150211Z 02004KT 07/00 A3042 RMK A01 T00740003  RH  061%=      5-min Rain = 0
KMC4 150212Z 02004KT 07/00 A3042 RMK A01 T00730004  RH  061%=      5-min Rain = 0
KMC4 150213Z 02004KT 07/00 A3042 RMK A01 T00720004  RH  062%=      5-min Rain = 0
KMC4 150214Z 02004KT 07/00 A3042 RMK A01 T00720003  RH  061%=      5-min Rain = 0
KMC4 150215Z 02004KT 07/00 A3042 RMK A01 T00720003  RH  061%=      5-min Rain = 0
KMC4 150216Z 02004KT 07/00 A3042 RMK A01 T00720003  RH  061%=      5-min Rain = 0
KMC4 150217Z 02004KT 07/00 A3042 RMK A01 T00720002  RH  061%=      5-min Rain = 0
KMC4 150218Z 02004KT 07/00 A3042 RMK A01 T00720002  RH  061%=      5-min Rain = 0
KMC4 150219Z 02003KT 07/00 A3042 RMK A01 T00720003  RH  061%=      5-min Rain = 0
KMC4 150220Z 02003KT 07/00 A3042 RMK A01 T00720003  RH  061%=      5-min Rain = 0
KMC4 150221Z 02003KT 07/00 A3042 RMK A01 T00720002  RH  061%=      5-min Rain = 0
KMC4 150222Z 02003KT 07/00 A3042 RMK A01 T00720002  RH  061%=      5-min Rain = 0
KMC4 150223Z 02003KT 07/00 A3042 RMK A01 T00720002  RH  061%=      5-min Rain = 0
KMC4 150224Z 02003KT 07/00 A3043 RMK A01 T00720002  RH  061%=      5-min Rain = 0
KMC4 150225Z 02003KT 07/00 A3043 RMK A01 T00710003  RH  062%=      5-min Rain = 0
KMC4 150226Z 03003KT 07/00 A3043 RMK A01 T00710003  RH  062%=      5-min Rain = 0
KMC4 150227Z 03003KT 07/00 A3043 RMK A01 T00710003  RH  062%=      5-min Rain = 0
KMC4 150228Z 03003KT 07/00 A3043 RMK A01 T00710003  RH  062%=      5-min Rain = 0
KMC4 150229Z 04003KT 07/00 A3043 RMK A01 T00700003  RH  062%=      5-min Rain = 0
KMC4 150230Z 03003KT 07/00 A3043 RMK A01 T00710003  RH  062%=      5-min Rain = 0
KMC4 150231Z 03003KT 07/00 A3043 RMK A01 T00700003  RH  062%=      5-min Rain = 0
KMC4 150232Z 03003KT 07/00 A3043 RMK A01 T00700003  RH  062%=      5-min Rain = 0
KMC4 150233Z 03003KT 07/00 A3043 RMK A01 T00700003  RH  062%=      5-min Rain = 0
KMC4 150234Z 04003KT 07/00 A3043 RMK A01 T00690003  RH  063%=      5-min Rain = 0
KMC4 150235Z 03003KT 07/00 A3043 RMK A01 T00690002  RH  063%=      5-min Rain = 0
KMC4 150236Z 04003KT 07/00 A3043 RMK A01 T00690002  RH  062%=      5-min Rain = 0
KMC4 150237Z 04003KT 07/00 A3043 RMK A01 T00690002  RH  062%=      5-min Rain = 0
KMC4 150238Z 04003KT 07/00 A3043 RMK A01 T00690001  RH  062%=      5-min Rain = 0
KMC4 150239Z 04003KT 07/00 A3043 RMK A01 T00690002  RH  062%=      5-min Rain = 0
KMC4 150240Z 04004KT 07/00 A3043 RMK A01 T00700002  RH  062%=      5-min Rain = 0
KMC4 150241Z 04003KT 07/00 A3043 RMK A01 T00690001  RH  062%=      5-min Rain = 0
KMC4 150242Z 04004KT 07/00 A3043 RMK A01 T00700001  RH  062%=      5-min Rain = 0
KMC4 150243Z 05004KT 07/00 A3044 RMK A01 T00700001  RH  062%=      5-min Rain = 0
KMC4 150244Z 04004KT 07/00 A3044 RMK A01 T00700001  RH  061%=      5-min Rain = 0
KMC4 150245Z 04004KT 07/00 A3044 RMK A01 T007100-0  RH  061%=      5-min Rain = 0
KMC4 150246Z 05004KT 07/00 A3044 RMK A01 T00710000  RH  061%=      5-min Rain = 0
KMC4 150247Z 05004KT 07/00 A3044 RMK A01 T00720001  RH  061%=      5-min Rain = 0
KMC4 150248Z 05004KT 07/00 A3044 RMK A01 T00720003  RH  061%=      5-min Rain = 0
KMC4 150249Z 05004KT 07/00 A3044 RMK A01 T00720002  RH  061%=      5-min Rain = 0
KMC4 150250Z 05004KT 07/00 A3044 RMK A01 T00720001  RH  061%=      5-min Rain = 0
KMC4 150251Z 05004KT 07/00 A3044 RMK A01 T00720000  RH  060%=      5-min Rain = 0
KMC4 150252Z 05004KT 07/00 A3044 RMK A01 T00720001  RH  060%=      5-min Rain = 0
KMC4 150253Z 04005KT 07/00 A3044 RMK A01 T00730002  RH  060%=      5-min Rain = 0
KMC4 150254Z 05004KT 07/00 A3044 RMK A01 T00730001  RH  060%=      5-min Rain = 0
KMC4 150255Z 04004KT 07/00 A3044 RMK A01 T00730000  RH  060%=      5-min Rain = 0
KMC4 150256Z 05004KT 07/00 A3044 RMK A01 T007300-0  RH  060%=      5-min Rain = 0
KMC4 150257Z 04004KT 07/00 A3044 RMK A01 T007300-0  RH  060%=      5-min Rain = 0
KMC4 150258Z 04005KT 07/00 A3044 RMK A01 T007400-0  RH  059%=      5-min Rain = 0
KMC4 150259Z 05005KT 07/00 A3044 RMK A01 T00740000  RH  060%=      5-min Rain = 0
KMC4 150300Z 04004KT 07/00 A3044 RMK A01 T00740000  RH  060%=      5-min Rain = 0
KMC4 150301Z 05005KT 07/00 A3044 RMK A01 T00740000  RH  060%=      5-min Rain = 0
KMC4 150302Z 04005KT 07/00 A3044 RMK A01 T00730001  RH  060%=      5-min Rain = 0
KMC4 150303Z 05005KT 07/00 A3044 RMK A01 T00730000  RH  060%=      5-min Rain = 0
KMC4 150304Z 05005KT 07/00 A3044 RMK A01 T00730000  RH  060%=      5-min Rain = 0
KMC4 150305Z 05005KT 07/00 A3044 RMK A01 T007300-0  RH  060%=      5-min Rain = 0
KMC4 150306Z 05005KT 07/M00 A3044 RMK A01 T00731001  RH  059%=      5-min Rain = 0
KMC4 150307Z 05005KT 07/M00 A3044 RMK A01 T00731001  RH  059%=      5-min Rain = 0
KMC4 150308Z 04005KT 07/M00 A3044 RMK A01 T00731001  RH  059%=      5-min Rain = 0
KMC4 150309Z 04005KT 07/M00 A3044 RMK A01 T00731002  RH  059%=      5-min Rain = 0
KMC4 150310Z 05005KT 07/M00 A3044 RMK A01 T00741002  RH  059%=      5-min Rain = 0
KMC4 150311Z 04005KT 07/M00 A3044 RMK A01 T00731002  RH  059%=      5-min Rain = 0
KMC4 150312Z 05004KT 07/M00 A3044 RMK A01 T00741001  RH  059%=      5-min Rain = 0
KMC4 150313Z 05004KT 07/M00 A3044 RMK A01 T00741001  RH  059%=      5-min Rain = 0
KMC4 150314Z 05004KT 07/M00 A3044 RMK A01 T00731002  RH  059%=      5-min Rain = 0
KMC4 150315Z 05004KT 07/M00 A3044 RMK A01 T00731002  RH  059%=      5-min Rain = 0
KMC4 150316Z 05004KT 07/M00 A3044 RMK A01 T00731002  RH  059%=      5-min Rain = 0
KMC4 150317Z 05005KT 07/M00 A3044 RMK A01 T00721003  RH  059%=      5-min Rain = 0
KMC4 150318Z 05004KT 07/M00 A3044 RMK A01 T00731003  RH  059%=      5-min Rain = 0
KMC4 150319Z 05004KT 07/M00 A3044 RMK A01 T00731003  RH  059%=      5-min Rain = 0
KMC4 150320Z 05004KT 07/M00 A3044 RMK A01 T00731003  RH  059%=      5-min Rain = 0
KMC4 150321Z 05005KT 07/M00 A3044 RMK A01 T00721003  RH  059%=      5-min Rain = 0
KMC4 150322Z 05005KT 07/M00 A3044 RMK A01 T00721003  RH  059%=      5-min Rain = 0
KMC4 150323Z 06004KT 07/M00 A3044 RMK A01 T00721003  RH  059%=      5-min Rain = 0
KMC4 150324Z 06004KT 07/M00 A3044 RMK A01 T00721003  RH  059%=      5-min Rain = 0
KMC4 150325Z 05005KT 07/M00 A3044 RMK A01 T00721004  RH  058%=      5-min Rain = 0
KMC4 150326Z 06005KT 07/M00 A3044 RMK A01 T00721004  RH  058%=      5-min Rain = 0
KMC4 150327Z 06005KT 07/M00 A3044 RMK A01 T00721004  RH  058%=      5-min Rain = 0
KMC4 150328Z 06005KT 07/M00 A3044 RMK A01 T00721004  RH  059%=      5-min Rain = 0
KMC4 150329Z 06005KT 07/M00 A3044 RMK A01 T00721004  RH  059%=      5-min Rain = 0
KMC4 150330Z 06005KT 07/M00 A3044 RMK A01 T00711004  RH  059%=      5-min Rain = 0
KMC4 150331Z 06004KT 07/M00 A3044 RMK A01 T00711004  RH  059%=      5-min Rain = 0
KMC4 150332Z 06005KT 07/M00 A3044 RMK A01 T00701004  RH  059%=      5-min Rain = 0
KMC4 150333Z 06005KT 07/M00 A3044 RMK A01 T00701004  RH  059%=      5-min Rain = 0
KMC4 150334Z 05004KT 07/M00 A3044 RMK A01 T00701004  RH  060%=      5-min Rain = 0
KMC4 150335Z 05004KT 07/M00 A3044 RMK A01 T00691004  RH  060%=      5-min Rain = 0
KMC4 150336Z 06004KT 07/M00 A3044 RMK A01 T00691004  RH  060%=      5-min Rain = 0
KMC4 150337Z 05004KT 07/M00 A3044 RMK A01 T00691004  RH  060%=      5-min Rain = 0
KMC4 150338Z 05004KT 07/M00 A3044 RMK A01 T00691004  RH  060%=      5-min Rain = 0
KMC4 150339Z 05005KT 07/M00 A3044 RMK A01 T00681003  RH  060%=      5-min Rain = 0
KMC4 150340Z 05004KT 07/M00 A3044 RMK A01 T00681003  RH  061%=      5-min Rain = 0
KMC4 150341Z 05004KT 07/M00 A3044 RMK A01 T00681002  RH  061%=      5-min Rain = 0
KMC4 150342Z 05004KT 07/M00 A3044 RMK A01 T00671002  RH  061%=      5-min Rain = 0
KMC4 150343Z 05004KT 07/M00 A3044 RMK A01 T00671002  RH  061%=      5-min Rain = 0
KMC4 150344Z 05004KT 07/M00 A3044 RMK A01 T00661002  RH  061%=      5-min Rain = 0
KMC4 150345Z 05004KT 07/M00 A3044 RMK A01 T00661003  RH  061%=      5-min Rain = 0
KMC4 150346Z 05004KT 07/M00 A3044 RMK A01 T00661002  RH  062%=      5-min Rain = 0
KMC4 150347Z 05005KT 07/M00 A3044 RMK A01 T00661003  RH  061%=      5-min Rain = 0
KMC4 150348Z 05004KT 07/M00 A3044 RMK A01 T00661004  RH  061%=      5-min Rain = 0
KMC4 150349Z 05004KT 07/M00 A3044 RMK A01 T00671004  RH  060%=      5-min Rain = 0
KMC4 150350Z 05004KT 07/M01 A3044 RMK A01 T00671005  RH  060%=      5-min Rain = 0
KMC4 150351Z 05004KT 07/M01 A3044 RMK A01 T00671005  RH  060%=      5-min Rain = 0
KMC4 150352Z 05004KT 07/M00 A3044 RMK A01 T00671004  RH  060%=      5-min Rain = 0
KMC4 150353Z 05004KT 07/M01 A3044 RMK A01 T00671005  RH  060%=      5-min Rain = 0
KMC4 150354Z 05005KT 07/M00 A3044 RMK A01 T00671004  RH  060%=      5-min Rain = 0
KMC4 150355Z 05005KT 07/M00 A3044 RMK A01 T00661004  RH  061%=      5-min Rain = 0
KMC4 150356Z 05004KT 07/M00 A3044 RMK A01 T00661004  RH  061%=      5-min Rain = 0
KMC4 150357Z 05004KT 07/M00 A3044 RMK A01 T00661004  RH  061%=      5-min Rain = 0
KMC4 150358Z 06004KT 07/M01 A3044 RMK A01 T00651005  RH  061%=      5-min Rain = 0
KMC4 150359Z 06004KT 07/M00 A3044 RMK A01 T00651004  RH  061%=      5-min Rain = 0
KMC4 150400Z 05003KT 06/M00 A3044 RMK A01 T00641004  RH  062%=      5-min Rain = 0
KMC4 150401Z 05003KT 06/M00 A3044 RMK A01 T00641004  RH  062%=      5-min Rain = 0
KMC4 150402Z 05003KT 06/M01 A3044 RMK A01 T00631005  RH  062%=      5-min Rain = 0
KMC4 150403Z 05004KT 06/M00 A3044 RMK A01 T00631004  RH  062%=      5-min Rain = 0
KMC4 150404Z 04004KT 06/M00 A3044 RMK A01 T00631004  RH  062%=      5-min Rain = 0
KMC4 150405Z 04004KT 06/M00 A3044 RMK A01 T00631004  RH  062%=      5-min Rain = 0
KMC4 150406Z 04004KT 06/M00 A3044 RMK A01 T00631004  RH  062%=      5-min Rain = 0
KMC4 150407Z 04004KT 06/M00 A3044 RMK A01 T00621004  RH  063%=      5-min Rain = 0
KMC4 150408Z 04004KT 06/M00 A3044 RMK A01 T00621004  RH  063%=      5-min Rain = 0
KMC4 150409Z 04004KT 06/M00 A3044 RMK A01 T00621004  RH  063%=      5-min Rain = 0
KMC4 150410Z 04003KT 06/M00 A3044 RMK A01 T00621003  RH  063%=      5-min Rain = 0
KMC4 150411Z 04003KT 06/M00 A3044 RMK A01 T00611003  RH  063%=      5-min Rain = 0
KMC4 150412Z 04003KT 06/M00 A3044 RMK A01 T00601004  RH  063%=      5-min Rain = 0
KMC4 150413Z 04003KT 06/M00 A3044 RMK A01 T00601003  RH  064%=      5-min Rain = 0
KMC4 150414Z 04003KT 06/M00 A3044 RMK A01 T00601003  RH  064%=      5-min Rain = 0
KMC4 150415Z 04003KT 06/M00 A3044 RMK A01 T00591003  RH  064%=      5-min Rain = 0
KMC4 150416Z 04003KT 06/M00 A3044 RMK A01 T00591003  RH  065%=      5-min Rain = 0
KMC4 150417Z 04002KT 06/M00 A3045 RMK A01 T00591003  RH  064%=      5-min Rain = 0
KMC4 150418Z 04002KT 06/M00 A3044 RMK A01 T00581004  RH  064%=      5-min Rain = 0
KMC4 150419Z 04003KT 06/M00 A3044 RMK A01 T00581004  RH  064%=      5-min Rain = 0
KMC4 150420Z 05003KT 06/M00 A3044 RMK A01 T00581003  RH  064%=      5-min Rain = 0
KMC4 150421Z 04003KT 06/M00 A3044 RMK A01 T00581004  RH  064%=      5-min Rain = 0
KMC4 150422Z 05003KT 06/M00 A3044 RMK A01 T00591004  RH  064%=      5-min Rain = 0
KMC4 150423Z 04002KT 06/M00 A3044 RMK A01 T00591004  RH  064%=      5-min Rain = 0
KMC4 150424Z 04002KT 06/M00 A3045 RMK A01 T00581003  RH  065%=      5-min Rain = 0
KMC4 150425Z 03002KT 06/M00 A3045 RMK A01 T00581002  RH  065%=      5-min Rain = 0
KMC4 150426Z 03002KT 06/M00 A3045 RMK A01 T00571002  RH  066%=      5-min Rain = 0
KMC4 150427Z 03001KT 06/M00 A3045 RMK A01 T00561002  RH  067%=      5-min Rain = 0
KMC4 150428Z 03001KT 06/M00 A3045 RMK A01 T00551001  RH  067%=      5-min Rain = 0
KMC4 150429Z 04001KT 05/M00 A3045 RMK A01 T00541001  RH  068%=      5-min Rain = 0
KMC4 150430Z 04001KT 05/M00 A3045 RMK A01 T00521001  RH  069%=      5-min Rain = 0
KMC4 150431Z 03001KT 05/M00 A3045 RMK A01 T00511001  RH  069%=      5-min Rain = 0
KMC4 150432Z 04001KT 05/M00 A3045 RMK A01 T00501001  RH  069%=      5-min Rain = 0
KMC4 150433Z 05001KT 05/M00 A3045 RMK A01 T00491001  RH  070%=      5-min Rain = 0
KMC4 150434Z 05001KT 05/00 A3045 RMK A01 T004900-0  RH  070%=      5-min Rain = 0
KMC4 150435Z 04001KT 05/M00 A3044 RMK A01 T00481002  RH  070%=      5-min Rain = 0
KMC4 150436Z 05001KT 05/00 A3044 RMK A01 T004800-0  RH  071%=      5-min Rain = 0
KMC4 150437Z 05001KT 05/M00 A3044 RMK A01 T00471001  RH  071%=      5-min Rain = 0
KMC4 150438Z 06002KT 05/M00 A3044 RMK A01 T00471001  RH  071%=      5-min Rain = 0
KMC4 150439Z 06001KT 05/M00 A3044 RMK A01 T00461001  RH  071%=      5-min Rain = 0
KMC4 150440Z 06001KT 05/00 A3044 RMK A01 T00460001  RH  073%=      5-min Rain = 0
KMC4 150441Z 07002KT 05/00 A3044 RMK A01 T00450001  RH  073%=      5-min Rain = 0
KMC4 150442Z 08002KT 05/00 A3044 RMK A01 T00450001  RH  073%=      5-min Rain = 0
KMC4 150443Z 07003KT 05/00 A3044 RMK A01 T00450001  RH  073%=      5-min Rain = 0
KMC4 150444Z 08003KT 04/M00 A3044 RMK A01 T00441001  RH  072%=      5-min Rain = 0
KMC4 150445Z 07003KT 05/M00 A3044 RMK A01 T00461001  RH  071%=      5-min Rain = 0
KMC4 150446Z 07003KT 05/M00 A3044 RMK A01 T00481002  RH  070%=      5-min Rain = 0
KMC4 150447Z 07002KT 05/M00 A3044 RMK A01 T00501002  RH  069%=      5-min Rain = 0
KMC4 150448Z 06002KT 05/M00 A3044 RMK A01 T00511003  RH  068%=      5-min Rain = 0
KMC4 150449Z 07002KT 05/M00 A3044 RMK A01 T00511003  RH  068%=      5-min Rain = 0
KMC4 150450Z 07003KT 05/M00 A3044 RMK A01 T00511003  RH  068%=      5-min Rain = 0
KMC4 150451Z 08002KT 05/M00 A3044 RMK A01 T00511003  RH  068%=      5-min Rain = 0
KMC4 150452Z 07003KT 05/M00 A3044 RMK A01 T00521003  RH  068%=      5-min Rain = 0
KMC4 150453Z 07003KT 05/M00 A3044 RMK A01 T00511004  RH  067%=      5-min Rain = 0
KMC4 150454Z 08003KT 05/M00 A3044 RMK A01 T00521004  RH  067%=      5-min Rain = 0
KMC4 150455Z 08002KT 05/M00 A3044 RMK A01 T00501003  RH  069%=      5-min Rain = 0
KMC4 150456Z 08003KT 05/M00 A3044 RMK A01 T00471002  RH  070%=      5-min Rain = 0
KMC4 150457Z 08002KT 05/M00 A3044 RMK A01 T00451002  RH  071%=      5-min Rain = 0
KMC4 150458Z 08002KT 04/M00 A3044 RMK A01 T00441003  RH  072%=      5-min Rain = 0
KMC4 150459Z 08002KT 04/M00 A3044 RMK A01 T00431003  RH  072%=      5-min Rain = 0
KMC4 150500Z 08003KT 04/M00 A3044 RMK A01 T00421002  RH  073%=      5-min Rain = 0
KMC4 150501Z 08003KT 04/M00 A3044 RMK A01 T00431002  RH  072%=      5-min Rain = 0
KMC4 150502Z 07003KT 05/M00 A3044 RMK A01 T00451002  RH  071%=      5-min Rain = 0
KMC4 150503Z 08003KT 05/M00 A3044 RMK A01 T00461003  RH  071%=      5-min Rain = 0
KMC4 150504Z 07003KT 05/M00 A3044 RMK A01 T00471002  RH  070%=      5-min Rain = 0
KMC4 150505Z 07003KT 05/M00 A3044 RMK A01 T00481003  RH  070%=      5-min Rain = 0
KMC4 150506Z 08003KT 05/M00 A3044 RMK A01 T00481003  RH  070%=      5-min Rain = 0
KMC4 150507Z 08003KT 05/M00 A3044 RMK A01 T00481003  RH  069%=      5-min Rain = 0
KMC4 150508Z 09003KT 05/M00 A3044 RMK A01 T00481004  RH  069%=      5-min Rain = 0
KMC4 150509Z 09003KT 05/M00 A3044 RMK A01 T00481004  RH  069%=      5-min Rain = 0
KMC4 150510Z 09003KT 05/M00 A3044 RMK A01 T00471003  RH  070%=      5-min Rain = 0
KMC4 150511Z 09003KT 05/M00 A3044 RMK A01 T00461003  RH  070%=      5-min Rain = 0
KMC4 150512Z 09004KT 05/M00 A3044 RMK A01 T00461002  RH  071%=      5-min Rain = 0
KMC4 150513Z 09004KT 05/M00 A3044 RMK A01 T00461002  RH  071%=      5-min Rain = 0
KMC4 150514Z 09004KT 05/M00 A3044 RMK A01 T00461002  RH  071%=      5-min Rain = 0
KMC4 150515Z 09004KT 05/M00 A3044 RMK A01 T00461002  RH  071%=      5-min Rain = 0
KMC4 150516Z 09005KT 05/M00 A3044 RMK A01 T00461002  RH  071%=      5-min Rain = 0
KMC4 150517Z 10005KT 05/M00 A3044 RMK A01 T00461002  RH  071%=      5-min Rain = 0
KMC4 150518Z 10004KT 05/M00 A3044 RMK A01 T00461003  RH  070%=      5-min Rain = 0
KMC4 150519Z 10004KT 05/M00 A3045 RMK A01 T00471003  RH  070%=      5-min Rain = 0
KMC4 150520Z 10003KT 05/M00 A3044 RMK A01 T00471001  RH  071%=      5-min Rain = 0
KMC4 150521Z 10003KT 05/00 A3045 RMK A01 T004600-0  RH  072%=      5-min Rain = 0
KMC4 150522Z 11002KT 05/M00 A3045 RMK A01 T00451002  RH  072%=      5-min Rain = 0
KMC4 150523Z 13002KT 04/M00 A3045 RMK A01 T00441003  RH  072%=      5-min Rain = 0
KMC4 150524Z 13002KT 04/M00 A3045 RMK A01 T00421003  RH  072%=      5-min Rain = 0
KMC4 150525Z 12003KT 04/M00 A3045 RMK A01 T00411003  RH  073%=      5-min Rain = 0
KMC4 150526Z 12003KT 04/M00 A3045 RMK A01 T00391003  RH  074%=      5-min Rain = 0
KMC4 150527Z 12002KT 04/M00 A3045 RMK A01 T00381004  RH  074%=      5-min Rain = 0
KMC4 150528Z 12002KT 04/M00 A3045 RMK A01 T00371003  RH  075%=      5-min Rain = 0
KMC4 150529Z 12003KT 04/M00 A3045 RMK A01 T00371004  RH  075%=      5-min Rain = 0
KMC4 150530Z 11003KT 04/M00 A3045 RMK A01 T00361003  RH  075%=      5-min Rain = 0
KMC4 150531Z 11003KT 04/M00 A3045 RMK A01 T00361003  RH  076%=      5-min Rain = 0
KMC4 150532Z 13002KT 04/M00 A3045 RMK A01 T00361003  RH  076%=      5-min Rain = 0
KMC4 150533Z 12002KT 04/M00 A3045 RMK A01 T00351004  RH  075%=      5-min Rain = 0
KMC4 150534Z 12002KT 04/M00 A3045 RMK A01 T00351004  RH  076%=      5-min Rain = 0
KMC4 150535Z 11002KT 04/M00 A3045 RMK A01 T00351003  RH  076%=      5-min Rain = 0
KMC4 150536Z 12003KT 04/M00 A3045 RMK A01 T00351004  RH  076%=      5-min Rain = 0
KMC4 150537Z 11002KT 03/M00 A3045 RMK A01 T00341004  RH  076%=      5-min Rain = 0
KMC4 150538Z 11002KT 03/M00 A3045 RMK A01 T00341003  RH  077%=      5-min Rain = 0
KMC4 150539Z 11002KT 03/M00 A3045 RMK A01 T00341003  RH  077%=      5-min Rain = 0
KMC4 150540Z 11002KT 03/M00 A3045 RMK A01 T00331004  RH  077%=      5-min Rain = 0
KMC4 150541Z 10002KT 03/M00 A3045 RMK A01 T00331003  RH  077%=      5-min Rain = 0
KMC4 150542Z 10002KT 03/M00 A3045 RMK A01 T00331004  RH  077%=      5-min Rain = 0
KMC4 150543Z 10001KT 03/M00 A3045 RMK A01 T00331003  RH  077%=      5-min Rain = 0
KMC4 150544Z 10001KT 03/M00 A3045 RMK A01 T00331004  RH  077%=      5-min Rain = 0
KMC4 150545Z 10001KT 03/M01 A3045 RMK A01 T00331005  RH  076%=      5-min Rain = 0
KMC4 150546Z 11001KT 03/M01 A3045 RMK A01 T00331006  RH  076%=      5-min Rain = 0
KMC4 150547Z 12001KT 03/M01 A3045 RMK A01 T00331006  RH  076%=      5-min Rain = 0
KMC4 150548Z 12001KT 03/M01 A3045 RMK A01 T00331006  RH  076%=      5-min Rain = 0
KMC4 150549Z 12001KT 03/M01 A3045 RMK A01 T00331006  RH  075%=      5-min Rain = 0
KMC4 150550Z 11002KT 03/M01 A3045 RMK A01 T00341006  RH  075%=      5-min Rain = 0
KMC4 150551Z 10002KT 04/M01 A3045 RMK A01 T00351005  RH  075%=      5-min Rain = 0
KMC4 150552Z 10002KT 04/M01 A3045 RMK A01 T00351005  RH  075%=      5-min Rain = 0
KMC4 150553Z 10002KT 04/M01 A3045 RMK A01 T00361005  RH  075%=      5-min Rain = 0
KMC4 150554Z 09002KT 04/M01 A3045 RMK A01 T00361005  RH  074%=      5-min Rain = 0
KMC4 150555Z 09002KT 04/M01 A3045 RMK A01 T00371006  RH  074%=      5-min Rain = 0
KMC4 150556Z 09002KT 04/M01 A3045 RMK A01 T00371005  RH  074%=      5-min Rain = 0
KMC4 150557Z 08003KT 04/M01 A3045 RMK A01 T00381005  RH  074%=      5-min Rain = 0
KMC4 150558Z 08003KT 04/M01 A3045 RMK A01 T00381005  RH  074%=      5-min Rain = 0
KMC4 150559Z 09003KT 04/M01 A3045 RMK A01 T00381005  RH  074%=      5-min Rain = 0

Page generated in 0.1411 seconds.